Time,TemperatureF,DewpointF,PressureIn,WindDirection,WindDirectionDegrees,WindSpeedMPH,WindSpeedGustMPH,Humidity,HourlyPrecipIn,Conditions,Clouds,dailyrainin,SoftwareType,DateUTC
2013-01-22 00:00:00,-11.2,-33.4,30.06,NNW,338,8.1,8.1,31,0.00,,,0.00,VWS V14.01,2013-01-22 06:00:00,
2013-01-22 00:01:00,-11.2,-33.4,30.03,NNW,338,8.1,8.1,31,0.00,,,0.00,VWS V14.01,2013-01-22 06:01:00,
2013-01-22 00:02:00,-11.2,-33.4,30.06,NNW,338,8.1,8.1,31,0.00,,,0.00,VWS V14.01,2013-01-22 06:02:00,
2013-01-22 00:04:00,-11.2,-33.4,30.06,NNW,338,8.1,8.1,31,0.00,,,0.00,VWS V14.01,2013-01-22 06:04:00,
2013-01-22 00:06:00,-11.2,-33.4,30.03,NNW,338,8.1,8.1,31,0.00,,,0.00,VWS V14.01,2013-01-22 06:06:00,
2013-01-22 00:08:00,-11.2,-33.4,30.03,NNW,338,8.1,8.1,31,0.00,,,0.00,VWS V14.01,2013-01-22 06:08:00,
2013-01-22 00:10:00,-11.2,-33.4,30.03,NNW,338,8.1,8.1,31,0.00,,,0.00,VWS V14.01,2013-01-22 06:10:00,
2013-01-22 00:11:00,-11.2,-33.4,30.03,NNW,338,3.4,3.4,31,0.00,,,0.00,VWS V14.01,2013-01-22 06:11:00,
2013-01-22 00:12:00,-11.2,-33.4,30.03,NNW,338,8.1,8.1,31,0.00,,,0.00,VWS V14.01,2013-01-22 06:12:00,
2013-01-22 00:14:00,-11.2,-33.4,30.03,NNW,338,8.1,8.1,31,0.00,,,0.00,VWS V14.01,2013-01-22 06:14:00,
2013-01-22 00:16:00,-11.2,-33.4,30.03,SE,135,4.7,4.7,31,0.00,,,0.00,VWS V14.01,2013-01-22 06:16:00,
2013-01-22 00:18:00,-11.2,-33.4,30.03,NNW,338,8.1,8.1,31,0.00,,,0.00,VWS V14.01,2013-01-22 06:18:00,
2013-01-22 00:20:00,-11.2,-33.4,30.03,NNW,338,8.1,8.1,31,0.00,,,0.00,VWS V14.01,2013-01-22 06:20:00,
2013-01-22 00:21:00,-11.2,-33.4,30.03,SE,135,4.7,4.7,31,0.00,,,0.00,VWS V14.01,2013-01-22 06:21:00,
2013-01-22 00:22:00,-11.2,-33.4,30.03,NNW,338,3.4,3.4,31,0.00,,,0.00,VWS V14.01,2013-01-22 06:22:00,
2013-01-22 00:24:00,-11.2,-33.4,30.03,NNW,338,3.4,3.4,31,0.00,,,0.00,VWS V14.01,2013-01-22 06:24:00,
2013-01-22 00:26:00,-11.2,-33.4,30.06,SE,135,4.7,4.7,31,0.00,,,0.00,VWS V14.01,2013-01-22 06:26:00,
2013-01-22 00:28:00,-11.2,-33.4,30.03,SE,135,4.7,4.7,31,0.00,,,0.00,VWS V14.01,2013-01-22 06:28:00,
2013-01-22 00:30:00,-11.2,-33.4,30.03,SE,135,4.7,4.7,31,0.00,,,0.00,VWS V14.01,2013-01-22 06:30:00,
2013-01-22 00:31:00,-11.2,-33.4,30.06,SE,135,4.7,4.7,31,0.00,,,0.00,VWS V14.01,2013-01-22 06:31:00,
2013-01-22 00:32:00,-11.2,-33.4,30.03,SE,135,4.7,4.7,31,0.00,,,0.00,VWS V14.01,2013-01-22 06:32:00,
2013-01-22 00:34:00,-11.2,-33.4,30.03,SE,135,4.7,4.7,31,0.00,,,0.00,VWS V14.01,2013-01-22 06:34:00,
2013-01-22 00:36:00,-11.4,-33.5,30.06,SE,135,4.7,4.7,31,0.00,,,0.00,VWS V14.01,2013-01-22 06:36:00,
2013-01-22 00:38:00,-11.2,-33.4,30.06,SE,135,4.7,4.7,31,0.00,,,0.00,VWS V14.01,2013-01-22 06:38:00,
2013-01-22 00:40:00,-11.2,-33.4,30.06,SE,135,4.7,4.7,31,0.00,,,0.00,VWS V14.01,2013-01-22 06:40:00,
2013-01-22 00:41:00,-11.6,-33.7,30.06,SE,135,4.7,4.7,31,0.00,,,0.00,VWS V14.01,2013-01-22 06:41:00,
2013-01-22 00:42:00,-11.2,-33.4,30.06,SE,135,4.7,4.7,31,0.00,,,0.00,VWS V14.01,2013-01-22 06:42:00,
2013-01-22 00:44:00,-11.4,-33.5,30.06,SE,135,4.7,4.7,31,0.00,,,0.00,VWS V14.01,2013-01-22 06:44:00,
2013-01-22 00:46:00,-11.6,-33.7,30.06,SE,135,4.7,4.7,31,0.00,,,0.00,VWS V14.01,2013-01-22 06:46:00,
2013-01-22 00:48:00,-11.4,-33.5,30.06,SE,135,4.7,4.7,31,0.00,,,0.00,VWS V14.01,2013-01-22 06:48:00,
2013-01-22 00:50:00,-11.6,-33.7,30.06,SE,135,4.7,4.7,31,0.00,,,0.00,VWS V14.01,2013-01-22 06:50:00,
2013-01-22 00:51:00,-11.7,-33.9,30.06,SE,135,4.7,4.7,31,0.00,,,0.00,VWS V14.01,2013-01-22 06:51:00,
2013-01-22 00:52:00,-11.6,-33.7,30.06,SE,135,4.7,4.7,31,0.00,,,0.00,VWS V14.01,2013-01-22 06:52:00,
2013-01-22 00:54:00,-11.6,-33.7,30.06,SE,135,4.7,4.7,31,0.00,,,0.00,VWS V14.01,2013-01-22 06:54:00,
2013-01-22 00:56:00,-11.7,-33.9,30.06,SE,135,4.7,4.7,31,0.00,,,0.00,VWS V14.01,2013-01-22 06:56:00,
2013-01-22 00:58:00,-11.6,-33.7,30.06,SE,135,4.7,4.7,31,0.00,,,0.00,VWS V14.01,2013-01-22 06:58:00,
2013-01-22 01:00:00,-11.7,-33.9,30.06,SE,135,4.7,4.7,31,0.00,,,0.00,VWS V14.01,2013-01-22 07:00:00,
2013-01-22 01:02:00,-11.7,-33.9,30.06,SE,135,4.7,4.7,31,0.00,,,0.00,VWS V14.01,2013-01-22 07:02:00,
2013-01-22 01:04:00,-11.7,-33.9,30.06,SE,135,4.7,4.7,31,0.00,,,0.00,VWS V14.01,2013-01-22 07:04:00,
2013-01-22 01:06:00,-11.9,-34.0,30.06,NNW,338,11.4,11.4,31,0.00,,,0.00,VWS V14.01,2013-01-22 07:06:00,
2013-01-22 01:08:00,-11.7,-33.9,30.06,SE,135,4.7,4.7,31,0.00,,,0.00,VWS V14.01,2013-01-22 07:08:00,
2013-01-22 01:10:00,-11.7,-33.9,30.06,SE,135,4.7,4.7,31,0.00,,,0.00,VWS V14.01,2013-01-22 07:10:00,
2013-01-22 01:11:00,-11.9,-34.0,30.06,NNW,338,14.1,14.1,31,0.00,,,0.00,VWS V14.01,2013-01-22 07:11:00,
2013-01-22 01:12:00,-11.7,-33.9,30.06,NNW,338,11.4,11.4,31,0.00,,,0.00,VWS V14.01,2013-01-22 07:12:00,
2013-01-22 01:14:00,-11.7,-33.9,30.06,NNW,338,11.4,11.4,31,0.00,,,0.00,VWS V14.01,2013-01-22 07:14:00,
2013-01-22 01:16:00,-12.1,-34.2,30.06,NNW,338,14.1,14.1,31,0.00,,,0.00,VWS V14.01,2013-01-22 07:16:00,
2013-01-22 01:18:00,-11.9,-34.0,30.06,ESE,112,4.7,4.7,31,0.00,,,0.00,VWS V14.01,2013-01-22 07:18:00,
2013-01-22 01:20:00,-11.9,-34.0,30.06,ESE,112,4.7,4.7,31,0.00,,,0.00,VWS V14.01,2013-01-22 07:20:00,
2013-01-22 01:21:00,-12.3,-34.3,30.06,WNW,292,8.7,8.7,31,0.00,,,0.00,VWS V14.01,2013-01-22 07:21:00,
2013-01-22 01:22:00,-11.9,-34.0,30.06,NNW,338,14.1,14.1,31,0.00,,,0.00,VWS V14.01,2013-01-22 07:22:00,
2013-01-22 01:24:00,-12.1,-34.2,30.06,NNW,338,14.1,14.1,31,0.00,,,0.00,VWS V14.01,2013-01-22 07:24:00,
2013-01-22 01:26:00,-12.3,-34.3,30.06,NW,315,7.4,7.4,31,0.00,,,0.00,VWS V14.01,2013-01-22 07:26:00,
2013-01-22 01:28:00,-12.1,-34.2,30.06,WNW,292,8.7,8.7,31,0.00,,,0.00,VWS V14.01,2013-01-22 07:28:00,
2013-01-22 01:30:00,-12.1,-34.2,30.06,WNW,292,8.7,8.7,31,0.00,,,0.00,VWS V14.01,2013-01-22 07:30:00,
2013-01-22 01:31:00,-12.3,-34.3,30.06,NNW,338,6.0,6.0,31,0.00,,,0.00,VWS V14.01,2013-01-22 07:31:00,
2013-01-22 01:32:00,-12.3,-34.3,30.06,WNW,292,8.7,8.7,31,0.00,,,0.00,VWS V14.01,2013-01-22 07:32:00,
2013-01-22 01:34:00,-12.3,-34.3,30.06,ENE,68,6.0,6.0,31,0.00,,,0.00,VWS V14.01,2013-01-22 07:34:00,
2013-01-22 01:36:00,-12.5,-34.5,30.06,WNW,292,9.4,9.4,31,0.00,,,0.00,VWS V14.01,2013-01-22 07:36:00,
2013-01-22 01:38:00,-12.3,-34.3,30.06,South,180,4.7,4.7,31,0.00,,,0.00,VWS V14.01,2013-01-22 07:38:00,
2013-01-22 01:40:00,-12.3,-34.3,30.06,NNW,338,6.0,6.0,31,0.00,,,0.00,VWS V14.01,2013-01-22 07:40:00,
2013-01-22 01:41:00,-12.5,-34.5,30.09,NNW,338,6.0,6.0,31,0.00,,,0.00,VWS V14.01,2013-01-22 07:41:00,
2013-01-22 01:42:00,-12.3,-34.3,30.06,NNW,338,7.4,7.4,31,0.00,,,0.00,VWS V14.01,2013-01-22 07:42:00,
2013-01-22 01:44:00,-12.3,-34.3,30.06,North,0,14.1,14.1,31,0.00,,,0.00,VWS V14.01,2013-01-22 07:44:00,
2013-01-22 01:46:00,-12.6,-34.7,30.09,NNW,338,6.0,6.0,31,0.00,,,0.00,VWS V14.01,2013-01-22 07:46:00,
2013-01-22 01:48:00,-12.5,-34.5,30.06,WNW,292,10.1,10.1,31,0.00,,,0.00,VWS V14.01,2013-01-22 07:48:00,
2013-01-22 01:50:00,-12.5,-34.5,30.09,NNW,338,6.0,6.0,31,0.00,,,0.00,VWS V14.01,2013-01-22 07:50:00,
2013-01-22 01:51:00,-12.6,-34.7,30.09,NNW,338,6.0,6.0,31,0.00,,,0.00,VWS V14.01,2013-01-22 07:51:00,
2013-01-22 01:52:00,-12.5,-34.5,30.09,NNW,338,6.0,6.0,31,0.00,,,0.00,VWS V14.01,2013-01-22 07:52:00,
2013-01-22 01:54:00,-12.5,-34.5,30.09,NNW,338,6.0,6.0,31,0.00,,,0.00,VWS V14.01,2013-01-22 07:54:00,
2013-01-22 01:56:00,-12.6,-34.7,30.09,NNW,338,6.0,6.0,31,0.00,,,0.00,VWS V14.01,2013-01-22 07:56:00,
2013-01-22 01:58:00,-12.6,-34.7,30.09,NNW,338,6.0,6.0,31,0.00,,,0.00,VWS V14.01,2013-01-22 07:58:00,
2013-01-22 02:00:00,-12.6,-34.7,30.09,NNW,338,6.0,6.0,31,0.00,,,0.00,VWS V14.01,2013-01-22 08:00:00,
2013-01-22 02:01:00,-12.6,-34.7,30.09,NNW,338,6.0,6.0,31,0.00,,,0.00,VWS V14.01,2013-01-22 08:01:00,
2013-01-22 02:02:00,-12.6,-34.7,30.09,NNW,338,6.0,6.0,31,0.00,,,0.00,VWS V14.01,2013-01-22 08:02:00,
2013-01-22 02:04:00,-12.6,-34.7,30.09,NNW,338,6.0,6.0,31,0.00,,,0.00,VWS V14.01,2013-01-22 08:04:00,
2013-01-22 02:06:00,-12.8,-34.8,30.09,NNW,338,6.0,6.0,31,0.00,,,0.00,VWS V14.01,2013-01-22 08:06:00,
2013-01-22 02:08:00,-12.6,-34.7,30.09,NNW,338,6.0,6.0,31,0.00,,,0.00,VWS V14.01,2013-01-22 08:08:00,
2013-01-22 02:10:00,-12.6,-34.7,30.09,NNW,338,6.0,6.0,31,0.00,,,0.00,VWS V14.01,2013-01-22 08:10:00,
2013-01-22 02:11:00,-12.8,-34.8,30.12,NNW,338,6.0,6.0,31,0.00,,,0.00,VWS V14.01,2013-01-22 08:11:00,
2013-01-22 02:12:00,-12.6,-34.7,30.09,NNW,338,6.0,6.0,31,0.00,,,0.00,VWS V14.01,2013-01-22 08:12:00,
2013-01-22 02:14:00,-12.6,-34.7,30.09,NNW,338,6.0,6.0,31,0.00,,,0.00,VWS V14.01,2013-01-22 08:14:00,
2013-01-22 02:16:00,-12.8,-34.8,30.12,NNW,338,6.0,6.0,31,0.00,,,0.00,VWS V14.01,2013-01-22 08:16:00,
2013-01-22 02:18:00,-12.8,-34.8,30.09,NNW,338,6.0,6.0,31,0.00,,,0.00,VWS V14.01,2013-01-22 08:18:00,
2013-01-22 02:20:00,-12.8,-34.8,30.12,NNW,338,6.0,6.0,31,0.00,,,0.00,VWS V14.01,2013-01-22 08:20:00,
2013-01-22 02:21:00,-13.0,-35.0,30.12,NNW,338,6.0,6.0,31,0.00,,,0.00,VWS V14.01,2013-01-22 08:21:00,
2013-01-22 02:22:00,-12.8,-34.8,30.12,NNW,338,6.0,6.0,31,0.00,,,0.00,VWS V14.01,2013-01-22 08:22:00,
2013-01-22 02:24:00,-12.8,-34.8,30.12,NNW,338,6.0,6.0,31,0.00,,,0.00,VWS V14.01,2013-01-22 08:24:00,
2013-01-22 02:26:00,-13.0,-35.0,30.12,NNW,338,6.0,6.0,31,0.00,,,0.00,VWS V14.01,2013-01-22 08:26:00,
2013-01-22 02:28:00,-12.8,-34.8,30.12,NNW,338,6.0,6.0,31,0.00,,,0.00,VWS V14.01,2013-01-22 08:28:00,
2013-01-22 02:30:00,-13.0,-35.0,30.12,NNW,338,6.0,6.0,31,0.00,,,0.00,VWS V14.01,2013-01-22 08:30:00,
2013-01-22 02:31:00,-13.2,-35.2,30.12,NNW,338,6.0,6.0,31,0.00,,,0.00,VWS V14.01,2013-01-22 08:31:00,
2013-01-22 02:32:00,-13.0,-35.0,30.12,NNW,338,6.0,6.0,31,0.00,,,0.00,VWS V14.01,2013-01-22 08:32:00,
2013-01-22 02:34:00,-13.0,-35.0,30.12,NNW,338,6.0,6.0,31,0.00,,,0.00,VWS V14.01,2013-01-22 08:34:00,
2013-01-22 02:36:00,-13.4,-35.3,30.12,NNW,338,6.0,6.0,31,0.00,,,0.00,VWS V14.01,2013-01-22 08:36:00,
2013-01-22 02:38:00,-13.2,-35.2,30.12,NNW,338,6.0,6.0,31,0.00,,,0.00,VWS V14.01,2013-01-22 08:38:00,
2013-01-22 02:40:00,-13.2,-35.2,30.12,NNW,338,6.0,6.0,31,0.00,,,0.00,VWS V14.01,2013-01-22 08:40:00,
2013-01-22 02:41:00,-13.4,-35.3,30.12,NNW,338,6.0,6.0,31,0.00,,,0.00,VWS V14.01,2013-01-22 08:41:00,
2013-01-22 02:42:00,-13.2,-35.2,30.12,NNW,338,6.0,6.0,31,0.00,,,0.00,VWS V14.01,2013-01-22 08:42:00,
2013-01-22 02:44:00,-13.2,-35.2,30.12,NNW,338,6.0,6.0,31,0.00,,,0.00,VWS V14.01,2013-01-22 08:44:00,
2013-01-22 02:46:00,-13.4,-35.3,30.12,NNW,338,6.0,6.0,31,0.00,,,0.00,VWS V14.01,2013-01-22 08:46:00,
2013-01-22 02:48:00,-13.4,-35.3,30.12,NNW,338,6.0,6.0,31,0.00,,,0.00,VWS V14.01,2013-01-22 08:48:00,
2013-01-22 02:50:00,-13.4,-35.3,30.12,NNW,338,6.0,6.0,31,0.00,,,0.00,VWS V14.01,2013-01-22 08:50:00,
2013-01-22 02:51:00,-13.4,-35.3,30.12,NNW,338,6.0,6.0,31,0.00,,,0.00,VWS V14.01,2013-01-22 08:51:00,
2013-01-22 02:52:00,-13.4,-35.3,30.12,NNW,338,6.0,6.0,31,0.00,,,0.00,VWS V14.01,2013-01-22 08:52:00,
2013-01-22 02:54:00,-13.4,-35.3,30.12,NNW,338,6.0,6.0,31,0.00,,,0.00,VWS V14.01,2013-01-22 08:54:00,
2013-01-22 02:56:00,-13.4,-35.3,30.12,NNW,338,6.0,6.0,31,0.00,,,0.00,VWS V14.01,2013-01-22 08:56:00,
2013-01-22 02:58:00,-13.4,-35.3,30.12,NNW,338,6.0,6.0,31,0.00,,,0.00,VWS V14.01,2013-01-22 08:58:00,
2013-01-22 03:00:00,-13.4,-35.3,30.12,NNW,338,6.0,6.0,31,0.00,,,0.00,VWS V14.01,2013-01-22 09:00:00,
2013-01-22 03:01:00,-13.4,-35.3,30.12,NNW,338,6.0,6.0,31,0.00,,,0.00,VWS V14.01,2013-01-22 09:01:00,
2013-01-22 03:02:00,-13.4,-35.3,30.12,NNW,338,6.0,6.0,31,0.00,,,0.00,VWS V14.01,2013-01-22 09:02:00,
2013-01-22 03:04:00,-13.4,-35.3,30.12,NNW,338,6.0,6.0,31,0.00,,,0.00,VWS V14.01,2013-01-22 09:04:00,
2013-01-22 03:06:00,-13.4,-35.3,30.12,NNW,338,6.0,6.0,31,0.00,,,0.00,VWS V14.01,2013-01-22 09:06:00,
2013-01-22 03:08:00,-13.4,-35.3,30.12,NNW,338,6.0,6.0,31,0.00,,,0.00,VWS V14.01,2013-01-22 09:08:00,
2013-01-22 03:10:00,-13.4,-35.3,30.12,NNW,338,6.0,6.0,31,0.00,,,0.00,VWS V14.01,2013-01-22 09:10:00,
2013-01-22 03:11:00,-13.5,-35.5,30.12,NNW,338,6.0,6.0,31,0.00,,,0.00,VWS V14.01,2013-01-22 09:11:00,
2013-01-22 03:12:00,-13.4,-35.3,30.12,NNW,338,6.0,6.0,31,0.00,,,0.00,VWS V14.01,2013-01-22 09:12:00,
2013-01-22 03:14:00,-13.4,-35.3,30.12,NNW,338,6.0,6.0,31,0.00,,,0.00,VWS V14.01,2013-01-22 09:14:00,
2013-01-22 03:16:00,-13.7,-35.6,30.12,NNW,338,6.0,6.0,31,0.00,,,0.00,VWS V14.01,2013-01-22 09:16:00,
2013-01-22 03:18:00,-13.4,-35.3,30.12,NNW,338,6.0,6.0,31,0.00,,,0.00,VWS V14.01,2013-01-22 09:18:00,
2013-01-22 03:20:00,-13.5,-35.5,30.12,NNW,338,6.0,6.0,31,0.00,,,0.00,VWS V14.01,2013-01-22 09:20:00,
2013-01-22 03:21:00,-13.5,-35.5,30.12,NNW,338,6.0,6.0,31,0.00,,,0.00,VWS V14.01,2013-01-22 09:21:00,
2013-01-22 03:22:00,-13.5,-35.5,30.12,NNW,338,6.0,6.0,31,0.00,,,0.00,VWS V14.01,2013-01-22 09:22:00,
2013-01-22 03:24:00,-13.7,-35.6,30.12,NNW,338,6.0,6.0,31,0.00,,,0.00,VWS V14.01,2013-01-22 09:24:00,
2013-01-22 03:26:00,-13.7,-35.6,30.12,NNW,338,6.0,6.0,31,0.00,,,0.00,VWS V14.01,2013-01-22 09:26:00,
2013-01-22 03:28:00,-13.7,-35.6,30.12,NNW,338,6.0,6.0,31,0.00,,,0.00,VWS V14.01,2013-01-22 09:28:00,
2013-01-22 03:30:00,-13.5,-35.5,30.12,NNW,338,6.0,6.0,31,0.00,,,0.00,VWS V14.01,2013-01-22 09:30:00,
2013-01-22 03:31:00,-13.9,-35.8,30.12,NNW,338,6.0,6.0,31,0.00,,,0.00,VWS V14.01,2013-01-22 09:31:00,
2013-01-22 03:32:00,-13.5,-35.5,30.12,NNW,338,6.0,6.0,31,0.00,,,0.00,VWS V14.01,2013-01-22 09:32:00,
2013-01-22 03:34:00,-13.7,-35.6,30.12,NNW,338,6.0,6.0,31,0.00,,,0.00,VWS V14.01,2013-01-22 09:34:00,
2013-01-22 03:36:00,-13.9,-35.8,30.12,NNW,338,6.0,6.0,31,0.00,,,0.00,VWS V14.01,2013-01-22 09:36:00,
2013-01-22 03:38:00,-13.9,-35.8,30.12,NNW,338,6.0,6.0,31,0.00,,,0.00,VWS V14.01,2013-01-22 09:38:00,
2013-01-22 03:40:00,-13.9,-35.8,30.12,NNW,338,6.0,6.0,31,0.00,,,0.00,VWS V14.01,2013-01-22 09:40:00,
2013-01-22 03:41:00,-14.1,-36.0,30.12,NNW,338,6.0,6.0,31,0.00,,,0.00,VWS V14.01,2013-01-22 09:41:00,
2013-01-22 03:42:00,-13.9,-35.8,30.12,NNW,338,6.0,6.0,31,0.00,,,0.00,VWS V14.01,2013-01-22 09:42:00,
2013-01-22 03:44:00,-13.9,-35.8,30.12,NNW,338,6.0,6.0,31,0.00,,,0.00,VWS V14.01,2013-01-22 09:44:00,
2013-01-22 03:46:00,-14.3,-36.1,30.12,NNW,338,6.0,6.0,31,0.00,,,0.00,VWS V14.01,2013-01-22 09:46:00,
2013-01-22 03:48:00,-13.9,-35.8,30.12,NNW,338,6.0,6.0,31,0.00,,,0.00,VWS V14.01,2013-01-22 09:48:00,
2013-01-22 03:50:00,-14.1,-36.0,30.12,NNW,338,6.0,6.0,31,0.00,,,0.00,VWS V14.01,2013-01-22 09:50:00,
2013-01-22 03:51:00,-14.4,-36.3,30.12,NNW,338,6.0,6.0,31,0.00,,,0.00,VWS V14.01,2013-01-22 09:51:00,
2013-01-22 03:52:00,-14.1,-36.0,30.12,NNW,338,6.0,6.0,31,0.00,,,0.00,VWS V14.01,2013-01-22 09:52:00,
2013-01-22 03:54:00,-14.3,-36.1,30.12,NNW,338,6.0,6.0,31,0.00,,,0.00,VWS V14.01,2013-01-22 09:54:00,
2013-01-22 03:56:00,-14.3,-36.1,30.12,NNW,338,6.0,6.0,31,0.00,,,0.00,VWS V14.01,2013-01-22 09:56:00,
2013-01-22 03:58:00,-14.3,-36.1,30.12,NNW,338,6.0,6.0,31,0.00,,,0.00,VWS V14.01,2013-01-22 09:58:00,
2013-01-22 04:00:00,-14.3,-36.1,30.12,NNW,338,6.0,6.0,31,0.00,,,0.00,VWS V14.01,2013-01-22 10:00:00,
2013-01-22 04:01:00,-14.3,-36.1,30.12,NNW,338,6.0,6.0,31,0.00,,,0.00,VWS V14.01,2013-01-22 10:01:00,
2013-01-22 04:02:00,-14.4,-36.3,30.12,NNW,338,6.0,6.0,31,0.00,,,0.00,VWS V14.01,2013-01-22 10:02:00,
2013-01-22 04:04:00,-14.3,-36.1,30.12,NNW,338,6.0,6.0,31,0.00,,,0.00,VWS V14.01,2013-01-22 10:04:00,
2013-01-22 04:06:00,-14.3,-36.1,30.12,NNW,338,6.0,6.0,31,0.00,,,0.00,VWS V14.01,2013-01-22 10:06:00,
2013-01-22 04:08:00,-14.3,-36.1,30.12,NNW,338,6.0,6.0,31,0.00,,,0.00,VWS V14.01,2013-01-22 10:08:00,
2013-01-22 04:10:00,-14.3,-36.1,30.12,NNW,338,6.0,6.0,31,0.00,,,0.00,VWS V14.01,2013-01-22 10:10:00,
2013-01-22 04:11:00,-14.3,-36.1,30.12,NNW,338,6.0,6.0,31,0.00,,,0.00,VWS V14.01,2013-01-22 10:11:00,
2013-01-22 04:12:00,-14.3,-36.1,30.12,NNW,338,6.0,6.0,31,0.00,,,0.00,VWS V14.01,2013-01-22 10:12:00,
2013-01-22 04:14:00,-14.3,-36.1,30.12,NNW,338,6.0,6.0,31,0.00,,,0.00,VWS V14.01,2013-01-22 10:14:00,
2013-01-22 04:16:00,-14.3,-36.1,30.12,NNW,338,6.0,6.0,31,0.00,,,0.00,VWS V14.01,2013-01-22 10:16:00,
2013-01-22 04:18:00,-14.3,-36.1,30.12,NNW,338,6.0,6.0,31,0.00,,,0.00,VWS V14.01,2013-01-22 10:18:00,
2013-01-22 04:20:00,-14.3,-36.1,30.12,NNW,338,6.0,6.0,31,0.00,,,0.00,VWS V14.01,2013-01-22 10:20:00,
2013-01-22 04:21:00,-14.3,-36.1,30.12,NNW,338,6.0,6.0,31,0.00,,,0.00,VWS V14.01,2013-01-22 10:21:00,
2013-01-22 04:22:00,-14.3,-36.1,30.12,NNW,338,6.0,6.0,31,0.00,,,0.00,VWS V14.01,2013-01-22 10:22:00,
2013-01-22 04:24:00,-14.3,-36.1,30.12,NNW,338,6.0,6.0,31,0.00,,,0.00,VWS V14.01,2013-01-22 10:24:00,
2013-01-22 04:26:00,-14.3,-36.1,30.12,NNW,338,6.0,6.0,31,0.00,,,0.00,VWS V14.01,2013-01-22 10:26:00,
2013-01-22 04:28:00,-14.3,-36.1,30.12,NNW,338,6.0,6.0,31,0.00,,,0.00,VWS V14.01,2013-01-22 10:28:00,
2013-01-22 04:30:00,-14.3,-36.1,30.12,NNW,338,6.0,6.0,31,0.00,,,0.00,VWS V14.01,2013-01-22 10:30:00,
2013-01-22 04:31:00,-14.4,-36.3,30.12,NNW,338,6.0,6.0,31,0.00,,,0.00,VWS V14.01,2013-01-22 10:31:00,
2013-01-22 04:32:00,-14.3,-36.1,30.12,NNW,338,6.0,6.0,31,0.00,,,0.00,VWS V14.01,2013-01-22 10:32:00,
2013-01-22 04:34:00,-14.3,-36.1,30.12,NNW,338,6.0,6.0,31,0.00,,,0.00,VWS V14.01,2013-01-22 10:34:00,
2013-01-22 04:36:00,-14.4,-36.3,30.12,NNW,338,6.0,6.0,31,0.00,,,0.00,VWS V14.01,2013-01-22 10:36:00,
2013-01-22 04:38:00,-14.3,-36.1,30.12,NNW,338,6.0,6.0,31,0.00,,,0.00,VWS V14.01,2013-01-22 10:38:00,
2013-01-22 04:40:00,-14.4,-36.3,30.12,NNW,338,6.0,6.0,31,0.00,,,0.00,VWS V14.01,2013-01-22 10:40:00,
2013-01-22 04:41:00,-14.4,-36.3,30.12,NNW,338,6.0,6.0,31,0.00,,,0.00,VWS V14.01,2013-01-22 10:41:00,
2013-01-22 04:42:00,-14.4,-36.3,30.12,NNW,338,6.0,6.0,31,0.00,,,0.00,VWS V14.01,2013-01-22 10:42:00,
2013-01-22 04:44:00,-14.4,-36.3,30.12,NNW,338,6.0,6.0,31,0.00,,,0.00,VWS V14.01,2013-01-22 10:44:00,
2013-01-22 04:46:00,-14.4,-36.3,30.12,NNW,338,6.0,6.0,31,0.00,,,0.00,VWS V14.01,2013-01-22 10:46:00,
2013-01-22 04:48:00,-14.4,-36.3,30.12,NNW,338,6.0,6.0,31,0.00,,,0.00,VWS V14.01,2013-01-22 10:48:00,
2013-01-22 04:50:00,-14.4,-36.3,30.12,NNW,338,6.0,6.0,31,0.00,,,0.00,VWS V14.01,2013-01-22 10:50:00,
2013-01-22 04:51:00,-14.4,-36.3,30.12,NNW,338,6.0,6.0,31,0.00,,,0.00,VWS V14.01,2013-01-22 10:51:00,
2013-01-22 04:52:00,-14.4,-36.3,30.12,NNW,338,6.0,6.0,31,0.00,,,0.00,VWS V14.01,2013-01-22 10:52:00,
2013-01-22 04:54:00,-14.4,-36.3,30.12,NNW,338,6.0,6.0,31,0.00,,,0.00,VWS V14.01,2013-01-22 10:54:00,
2013-01-22 04:56:00,-14.4,-36.3,30.12,NNW,338,6.0,6.0,31,0.00,,,0.00,VWS V14.01,2013-01-22 10:56:00,
2013-01-22 04:58:00,-14.4,-36.3,30.12,NNW,338,6.0,6.0,31,0.00,,,0.00,VWS V14.01,2013-01-22 10:58:00,
2013-01-22 05:00:00,-14.4,-36.3,30.12,NNW,338,6.0,6.0,31,0.00,,,0.00,VWS V14.01,2013-01-22 11:00:00,
2013-01-22 05:01:00,-14.4,-36.3,30.12,NNW,338,6.0,6.0,31,0.00,,,0.00,VWS V14.01,2013-01-22 11:01:00,
2013-01-22 05:02:00,-14.4,-36.3,30.12,NNW,338,6.0,6.0,31,0.00,,,0.00,VWS V14.01,2013-01-22 11:02:00,
2013-01-22 05:04:00,-14.4,-36.3,30.12,NNW,338,6.0,6.0,31,0.00,,,0.00,VWS V14.01,2013-01-22 11:04:00,
2013-01-22 05:06:00,-14.8,-36.6,30.12,NNW,338,6.0,6.0,31,0.00,,,0.00,VWS V14.01,2013-01-22 11:06:00,
2013-01-22 05:08:00,-14.4,-36.3,30.12,NNW,338,6.0,6.0,31,0.00,,,0.00,VWS V14.01,2013-01-22 11:08:00,
2013-01-22 05:10:00,-14.4,-36.3,30.12,NNW,338,6.0,6.0,31,0.00,,,0.00,VWS V14.01,2013-01-22 11:10:00,
2013-01-22 05:11:00,-14.8,-36.6,30.12,NNW,338,6.0,6.0,31,0.00,,,0.00,VWS V14.01,2013-01-22 11:11:00,
2013-01-22 05:12:00,-14.4,-36.3,30.12,NNW,338,6.0,6.0,31,0.00,,,0.00,VWS V14.01,2013-01-22 11:12:00,
2013-01-22 05:14:00,-14.6,-36.4,30.12,NNW,338,6.0,6.0,31,0.00,,,0.00,VWS V14.01,2013-01-22 11:14:00,
2013-01-22 05:16:00,-14.8,-36.6,30.12,NNW,338,6.0,6.0,31,0.00,,,0.00,VWS V14.01,2013-01-22 11:16:00,
2013-01-22 05:18:00,-14.8,-36.6,30.12,NNW,338,6.0,6.0,31,0.00,,,0.00,VWS V14.01,2013-01-22 11:18:00,
2013-01-22 05:20:00,-14.8,-36.6,30.12,NNW,338,6.0,6.0,31,0.00,,,0.00,VWS V14.01,2013-01-22 11:20:00,
2013-01-22 05:21:00,-14.8,-36.6,30.12,NNW,338,6.0,6.0,31,0.00,,,0.00,VWS V14.01,2013-01-22 11:21:00,
2013-01-22 05:22:00,-14.8,-36.6,30.12,NNW,338,6.0,6.0,31,0.00,,,0.00,VWS V14.01,2013-01-22 11:22:00,
2013-01-22 05:24:00,-14.8,-36.6,30.12,NNW,338,6.0,6.0,31,0.00,,,0.00,VWS V14.01,2013-01-22 11:24:00,
2013-01-22 05:26:00,-15.0,-36.8,30.12,NNW,338,6.0,6.0,31,0.00,,,0.00,VWS V14.01,2013-01-22 11:26:00,
2013-01-22 05:28:00,-14.8,-36.6,30.12,NNW,338,6.0,6.0,31,0.00,,,0.00,VWS V14.01,2013-01-22 11:28:00,
2013-01-22 05:30:00,-14.8,-36.6,30.12,NNW,338,6.0,6.0,31,0.00,,,0.00,VWS V14.01,2013-01-22 11:30:00,
2013-01-22 05:31:00,-15.0,-36.8,30.12,NNW,338,6.0,6.0,31,0.00,,,0.00,VWS V14.01,2013-01-22 11:31:00,
2013-01-22 05:32:00,-14.8,-36.6,30.12,NNW,338,6.0,6.0,31,0.00,,,0.00,VWS V14.01,2013-01-22 11:32:00,
2013-01-22 05:34:00,-14.8,-36.6,30.12,NNW,338,6.0,6.0,31,0.00,,,0.00,VWS V14.01,2013-01-22 11:34:00,
2013-01-22 05:36:00,-15.0,-36.8,30.12,NNW,338,6.0,6.0,31,0.00,,,0.00,VWS V14.01,2013-01-22 11:36:00,
2013-01-22 05:38:00,-15.0,-36.8,30.12,NNW,338,6.0,6.0,31,0.00,,,0.00,VWS V14.01,2013-01-22 11:38:00,
2013-01-22 05:40:00,-15.0,-36.8,30.12,NNW,338,6.0,6.0,31,0.00,,,0.00,VWS V14.01,2013-01-22 11:40:00,
2013-01-22 05:41:00,-15.2,-36.9,30.12,NNW,338,6.0,6.0,31,0.00,,,0.00,VWS V14.01,2013-01-22 11:41:00,
2013-01-22 05:42:00,-15.0,-36.8,30.12,NNW,338,6.0,6.0,31,0.00,,,0.00,VWS V14.01,2013-01-22 11:42:00,
2013-01-22 05:44:00,-15.0,-36.8,30.12,NNW,338,6.0,6.0,31,0.00,,,0.00,VWS V14.01,2013-01-22 11:44:00,
2013-01-22 05:46:00,-15.2,-36.9,30.12,NNW,338,0.0,0.0,31,0.00,,,0.00,VWS V14.01,2013-01-22 11:46:00,
2013-01-22 05:48:00,-15.0,-36.8,30.12,NNW,338,6.0,6.0,31,0.00,,,0.00,VWS V14.01,2013-01-22 11:48:00,
2013-01-22 05:50:00,-15.0,-36.8,30.12,NNW,338,6.0,6.0,31,0.00,,,0.00,VWS V14.01,2013-01-22 11:50:00,
2013-01-22 05:51:00,-15.3,-37.1,30.12,West,270,0.0,0.0,31,0.00,,,0.00,VWS V14.01,2013-01-22 11:51:00,
2013-01-22 05:52:00,-15.2,-36.9,30.12,NNW,338,2.7,2.7,31,0.00,,,0.00,VWS V14.01,2013-01-22 11:52:00,
2013-01-22 05:54:00,-15.2,-36.9,30.12,NNW,338,0.0,0.0,31,0.00,,,0.00,VWS V14.01,2013-01-22 11:54:00,
2013-01-22 05:56:00,-15.5,-37.2,30.12,NNW,338,7.4,7.4,31,0.00,,,0.00,VWS V14.01,2013-01-22 11:56:00,
2013-01-22 05:58:00,-15.2,-36.9,30.12,NNW,338,0.0,1.3,31,0.00,,,0.00,VWS V14.01,2013-01-22 11:58:00,
2013-01-22 06:00:00,-15.2,-36.9,30.12,NNW,338,0.0,0.0,31,0.00,,,0.00,VWS V14.01,2013-01-22 12:00:00,
2013-01-22 06:01:00,-15.3,-37.1,30.12,WSW,248,0.0,1.1,31,0.00,,,0.00,VWS V14.01,2013-01-22 12:01:00,
2013-01-22 06:02:00,-15.3,-37.1,30.12,West,270,0.0,0.0,31,0.00,,,0.00,VWS V14.01,2013-01-22 12:02:00,
2013-01-22 06:04:00,-15.5,-37.2,30.12,NNW,338,0.0,0.0,31,0.00,,,0.00,VWS V14.01,2013-01-22 12:04:00,
2013-01-22 06:06:00,-15.3,-37.1,30.12,NNW,338,3.4,3.4,31,0.00,,,0.00,VWS V14.01,2013-01-22 12:06:00,
2013-01-22 06:08:00,-15.5,-37.2,30.12,NNE,22,4.0,4.0,31,0.00,,,0.00,VWS V14.01,2013-01-22 12:08:00,
2013-01-22 06:10:00,-15.3,-37.1,30.12,NNW,338,3.4,3.4,31,0.00,,,0.00,VWS V14.01,2013-01-22 12:10:00,
2013-01-22 06:11:00,-15.5,-37.2,30.09,NNW,338,2.7,2.7,31,0.00,,,0.00,VWS V14.01,2013-01-22 12:11:00,
2013-01-22 06:12:00,-15.3,-37.1,30.12,NNW,338,0.0,1.3,31,0.00,,,0.00,VWS V14.01,2013-01-22 12:12:00,
2013-01-22 06:14:00,-15.3,-37.1,30.12,NNW,338,3.4,3.4,31,0.00,,,0.00,VWS V14.01,2013-01-22 12:14:00,
2013-01-22 06:16:00,-15.3,-37.1,30.09,NW,315,4.0,4.0,31,0.00,,,0.00,VWS V14.01,2013-01-22 12:16:00,
2013-01-22 06:18:00,-15.3,-37.1,30.12,NNW,338,3.4,3.4,31,0.00,,,0.00,VWS V14.01,2013-01-22 12:18:00,
2013-01-22 06:20:00,-15.3,-37.1,30.09,NNE,22,0.0,0.9,31,0.00,,,0.00,VWS V14.01,2013-01-22 12:20:00,
2013-01-22 06:21:00,-15.2,-36.9,30.09,NNW,338,6.7,6.7,31,0.00,,,0.00,VWS V14.01,2013-01-22 12:21:00,
2013-01-22 06:22:00,-15.5,-37.2,30.09,NNW,338,2.7,2.7,31,0.00,,,0.00,VWS V14.01,2013-01-22 12:22:00,
2013-01-22 06:24:00,-15.3,-37.1,30.09,NNW,338,4.0,4.0,31,0.00,,,0.00,VWS V14.01,2013-01-22 12:24:00,
2013-01-22 06:26:00,-15.3,-37.1,30.12,SSW,202,4.7,4.7,31,0.00,,,0.00,VWS V14.01,2013-01-22 12:26:00,
2013-01-22 06:28:00,-15.3,-37.1,30.09,NNW,338,4.0,4.0,31,0.00,,,0.00,VWS V14.01,2013-01-22 12:28:00,
2013-01-22 06:30:00,-15.2,-36.9,30.09,NNW,338,2.7,3.6,31,0.00,,,0.00,VWS V14.01,2013-01-22 12:30:00,
2013-01-22 06:31:00,-15.0,-36.8,30.12,WNW,292,4.7,4.7,31,0.00,,,0.00,VWS V14.01,2013-01-22 12:31:00,
2013-01-22 06:32:00,-15.2,-36.9,30.09,NW,315,0.0,2.2,31,0.00,,,0.00,VWS V14.01,2013-01-22 12:32:00,
2013-01-22 06:34:00,-15.2,-36.9,30.09,NNE,22,4.7,4.7,31,0.00,,,0.00,VWS V14.01,2013-01-22 12:34:00,
2013-01-22 06:36:00,-15.0,-36.8,30.12,WNW,292,4.0,4.0,31,0.00,,,0.00,VWS V14.01,2013-01-22 12:36:00,
2013-01-22 06:38:00,-15.2,-36.9,30.12,SW,225,4.7,4.7,31,0.00,,,0.00,VWS V14.01,2013-01-22 12:38:00,
2013-01-22 06:40:00,-15.0,-36.8,30.12,WNW,292,4.7,4.7,31,0.00,,,0.00,VWS V14.01,2013-01-22 12:40:00,
2013-01-22 06:41:00,-15.2,-36.9,30.12,WSW,248,0.0,1.3,31,0.00,,,0.00,VWS V14.01,2013-01-22 12:41:00,
2013-01-22 06:42:00,-15.0,-36.8,30.12,WNW,292,4.0,4.0,31,0.00,,,0.00,VWS V14.01,2013-01-22 12:42:00,
2013-01-22 06:44:00,-15.0,-36.8,30.12,NNW,338,3.4,3.4,31,0.00,,,0.00,VWS V14.01,2013-01-22 12:44:00,
2013-01-22 06:46:00,-15.5,-37.2,30.12,East,90,0.0,0.0,31,0.00,,,0.00,VWS V14.01,2013-01-22 12:46:00,
2013-01-22 06:48:00,-15.0,-36.8,30.12,SW,225,0.0,0.9,31,0.00,,,0.00,VWS V14.01,2013-01-22 12:48:00,
2013-01-22 06:50:00,-15.2,-36.9,30.12,SSE,158,0.0,0.0,31,0.00,,,0.00,VWS V14.01,2013-01-22 12:50:00,
2013-01-22 06:51:00,-15.5,-37.2,30.12,SSW,202,0.0,0.0,31,0.00,,,0.00,VWS V14.01,2013-01-22 12:51:00,
2013-01-22 06:52:00,-15.2,-36.9,30.12,WSW,248,0.0,1.1,31,0.00,,,0.00,VWS V14.01,2013-01-22 12:52:00,
2013-01-22 06:54:00,-15.3,-37.1,30.12,WSW,248,0.0,0.0,31,0.00,,,0.00,VWS V14.01,2013-01-22 12:54:00,
2013-01-22 06:56:00,-15.7,-37.4,30.09,SSW,202,0.0,0.0,31,0.00,,,0.00,VWS V14.01,2013-01-22 12:56:00,
2013-01-22 06:58:00,-15.5,-37.2,30.12,SSW,202,0.0,0.0,31,0.00,,,0.00,VWS V14.01,2013-01-22 12:58:00,
2013-01-22 07:00:00,-15.5,-37.2,30.12,SSW,202,0.0,0.0,31,0.00,,,0.00,VWS V14.01,2013-01-22 13:00:00,
2013-01-22 07:01:00,-15.9,-37.6,30.09,South,180,0.0,1.1,31,0.00,,,0.00,VWS V14.01,2013-01-22 13:01:00,
2013-01-22 07:02:00,-15.5,-37.2,30.12,SSW,202,0.0,0.0,31,0.00,,,0.00,VWS V14.01,2013-01-22 13:02:00,
2013-01-22 07:04:00,-15.7,-37.4,30.12,SW,225,0.0,0.0,31,0.00,,,0.00,VWS V14.01,2013-01-22 13:04:00,
2013-01-22 07:06:00,-15.9,-37.6,30.09,SSW,202,4.0,4.0,31,0.00,,,0.00,VWS V14.01,2013-01-22 13:06:00,
2013-01-22 07:08:00,-15.7,-37.4,30.09,SSE,158,0.0,0.0,31,0.00,,,0.00,VWS V14.01,2013-01-22 13:08:00,
2013-01-22 07:10:00,-15.9,-37.6,30.09,SSE,158,4.7,4.7,31,0.00,,,0.00,VWS V14.01,2013-01-22 13:10:00,
2013-01-22 07:11:00,-16.1,-37.7,30.12,SW,225,0.0,1.6,31,0.00,,,0.00,VWS V14.01,2013-01-22 13:11:00,
2013-01-22 07:12:00,-15.9,-37.6,30.09,South,180,0.0,0.0,31,0.00,,,0.00,VWS V14.01,2013-01-22 13:12:00,
2013-01-22 07:14:00,-15.9,-37.6,30.09,SSW,202,4.0,4.0,31,0.00,,,0.00,VWS V14.01,2013-01-22 13:14:00,
2013-01-22 07:16:00,-16.1,-37.7,30.12,SSW,202,0.0,0.0,31,0.00,,,0.00,VWS V14.01,2013-01-22 13:16:00,
2013-01-22 07:18:00,-15.9,-37.6,30.09,SSW,202,0.0,1.3,31,0.00,,,0.00,VWS V14.01,2013-01-22 13:18:00,
2013-01-22 07:20:00,-15.9,-37.6,30.12,SSW,202,3.4,3.4,31,0.00,,,0.00,VWS V14.01,2013-01-22 13:20:00,
2013-01-22 07:21:00,-16.1,-37.7,30.12,SSW,202,0.0,0.0,31,0.00,,,0.00,VWS V14.01,2013-01-22 13:21:00,
2013-01-22 07:22:00,-16.1,-37.7,30.12,South,180,0.0,0.0,31,0.00,,,0.00,VWS V14.01,2013-01-22 13:22:00,
2013-01-22 07:24:00,-16.1,-37.7,30.12,SSW,202,3.4,3.4,31,0.00,,,0.00,VWS V14.01,2013-01-22 13:24:00,
2013-01-22 07:26:00,-16.1,-37.7,30.12,SSW,202,0.0,1.1,31,0.00,,,0.00,VWS V14.01,2013-01-22 13:26:00,
2013-01-22 07:27:00,-16.2,-37.9,30.12,SSW,202,0.0,0.0,31,0.00,,,0.00,VWS V14.01,2013-01-22 13:27:00,
2013-01-22 07:28:00,-16.1,-37.7,30.12,SSW,202,0.0,0.0,31,0.00,,,0.00,VWS V14.01,2013-01-22 13:28:00,
2013-01-22 07:30:00,-16.1,-37.7,30.12,SSW,202,0.0,0.0,31,0.00,,,0.00,VWS V14.01,2013-01-22 13:30:00,
2013-01-22 07:32:00,-16.6,-38.2,30.12,South,180,0.0,0.0,31,0.00,,,0.00,VWS V14.01,2013-01-22 13:32:00,
2013-01-22 07:34:00,-16.2,-37.9,30.12,SSW,202,0.0,0.0,31,0.00,,,0.00,VWS V14.01,2013-01-22 13:34:00,
2013-01-22 07:36:00,-16.2,-37.9,30.12,SSW,202,0.0,0.0,31,0.00,,,0.00,VWS V14.01,2013-01-22 13:36:00,
2013-01-22 07:37:00,-17.0,-38.5,30.12,SSW,202,0.0,0.0,31,0.00,,,0.00,VWS V14.01,2013-01-22 13:37:00,
2013-01-22 07:38:00,-16.2,-37.9,30.12,South,180,0.0,0.0,31,0.00,,,0.00,VWS V14.01,2013-01-22 13:38:00,
2013-01-22 07:40:00,-16.4,-38.0,30.12,South,180,0.0,0.0,31,0.00,,,0.00,VWS V14.01,2013-01-22 13:40:00,
2013-01-22 07:42:00,-16.8,-38.4,30.12,SSW,202,0.0,0.0,31,0.00,,,0.00,VWS V14.01,2013-01-22 13:42:00,
2013-01-22 07:44:00,-16.8,-38.4,30.12,South,180,0.0,0.0,31,0.00,,,0.00,VWS V14.01,2013-01-22 13:44:00,
2013-01-22 07:46:00,-16.8,-38.4,30.12,South,180,0.0,0.0,31,0.00,,,0.00,VWS V14.01,2013-01-22 13:46:00,
2013-01-22 07:47:00,-17.0,-38.5,30.12,SSW,202,0.0,0.0,31,0.00,,,0.00,VWS V14.01,2013-01-22 13:47:00,
2013-01-22 07:48:00,-16.8,-38.4,30.12,SSW,202,0.0,0.0,31,0.00,,,0.00,VWS V14.01,2013-01-22 13:48:00,
2013-01-22 07:50:00,-16.8,-38.4,30.12,SSW,202,0.0,0.0,31,0.00,,,0.00,VWS V14.01,2013-01-22 13:50:00,
2013-01-22 07:52:00,-17.0,-38.5,30.12,SSW,202,0.0,0.0,31,0.00,,,0.00,VWS V14.01,2013-01-22 13:52:00,
2013-01-22 07:54:00,-16.8,-38.4,30.12,SSW,202,0.0,0.0,31,0.00,,,0.00,VWS V14.01,2013-01-22 13:54:00,
2013-01-22 07:56:00,-17.0,-38.5,30.12,SSW,202,0.0,0.0,31,0.00,,,0.00,VWS V14.01,2013-01-22 13:56:00,
2013-01-22 07:57:00,-17.0,-38.5,30.12,SSW,202,0.0,0.0,31,0.00,,,0.00,VWS V14.01,2013-01-22 13:57:00,
2013-01-22 07:58:00,-17.0,-38.5,30.12,SSW,202,0.0,0.0,31,0.00,,,0.00,VWS V14.01,2013-01-22 13:58:00,
2013-01-22 08:00:00,-17.0,-38.5,30.12,SSW,202,0.0,0.0,31,0.00,,,0.00,VWS V14.01,2013-01-22 14:00:00,
2013-01-22 08:02:00,-17.0,-38.5,30.12,SSW,202,0.0,0.0,31,0.00,,,0.00,VWS V14.01,2013-01-22 14:02:00,
2013-01-22 08:04:00,-17.0,-38.5,30.12,SSW,202,0.0,0.0,31,0.00,,,0.00,VWS V14.01,2013-01-22 14:04:00,
2013-01-22 08:06:00,-17.0,-38.5,30.12,SSW,202,0.0,0.0,31,0.00,,,0.00,VWS V14.01,2013-01-22 14:06:00,
2013-01-22 08:07:00,-16.8,-38.4,30.12,SSW,202,0.0,0.0,31,0.00,,,0.00,VWS V14.01,2013-01-22 14:07:00,
2013-01-22 08:08:00,-17.0,-38.5,30.12,SSW,202,0.0,0.0,31,0.00,,,0.00,VWS V14.01,2013-01-22 14:08:00,
2013-01-22 08:10:00,-17.0,-38.5,30.12,SSW,202,0.0,0.0,31,0.00,,,0.00,VWS V14.01,2013-01-22 14:10:00,
2013-01-22 08:12:00,-16.6,-38.2,30.12,SSW,202,4.0,4.0,31,0.00,,,0.00,VWS V14.01,2013-01-22 14:12:00,
2013-01-22 08:14:00,-16.8,-38.4,30.12,SSW,202,0.0,0.0,31,0.00,,,0.00,VWS V14.01,2013-01-22 14:14:00,
2013-01-22 08:16:00,-16.8,-38.4,30.12,SSW,202,0.0,0.0,31,0.00,,,0.00,VWS V14.01,2013-01-22 14:16:00,
2013-01-22 08:17:00,-16.4,-38.0,30.12,SSW,202,0.0,0.0,31,0.00,,,0.00,VWS V14.01,2013-01-22 14:17:00,
2013-01-22 08:18:00,-16.8,-38.4,30.12,SSW,202,0.0,0.0,31,0.00,,,0.00,VWS V14.01,2013-01-22 14:18:00,
2013-01-22 08:20:00,-16.8,-38.4,30.12,SSW,202,0.0,0.0,31,0.00,,,0.00,VWS V14.01,2013-01-22 14:20:00,
2013-01-22 08:22:00,-16.2,-37.9,30.12,SW,225,0.0,0.0,31,0.00,,,0.00,VWS V14.01,2013-01-22 14:22:00,
2013-01-22 08:24:00,-16.6,-38.2,30.12,SSW,202,2.7,2.7,31,0.00,,,0.00,VWS V14.01,2013-01-22 14:24:00,
2013-01-22 08:26:00,-16.4,-38.0,30.12,SSW,202,0.0,0.0,31,0.00,,,0.00,VWS V14.01,2013-01-22 14:26:00,
2013-01-22 08:27:00,-16.1,-37.7,30.12,SSW,202,0.0,0.0,31,0.00,,,0.00,VWS V14.01,2013-01-22 14:27:00,
2013-01-22 08:28:00,-16.4,-38.0,30.12,SSW,202,0.0,0.0,31,0.00,,,0.00,VWS V14.01,2013-01-22 14:28:00,
2013-01-22 08:30:00,-16.4,-38.0,30.12,SSW,202,0.0,0.0,31,0.00,,,0.00,VWS V14.01,2013-01-22 14:30:00,
2013-01-22 08:32:00,-15.9,-37.6,30.12,WSW,248,2.7,2.7,31,0.00,,,0.00,VWS V14.01,2013-01-22 14:32:00,
2013-01-22 08:34:00,-16.2,-37.9,30.12,SW,225,0.0,0.0,31,0.00,,,0.00,VWS V14.01,2013-01-22 14:34:00,
2013-01-22 08:36:00,-16.1,-37.7,30.12,SW,225,0.0,0.0,31,0.00,,,0.00,VWS V14.01,2013-01-22 14:36:00,
2013-01-22 08:37:00,-15.2,-36.9,30.12,WSW,248,0.0,2.7,31,0.00,,,0.00,VWS V14.01,2013-01-22 14:37:00,
2013-01-22 08:38:00,-16.1,-37.7,30.12,SW,225,0.0,0.0,31,0.00,,,0.00,VWS V14.01,2013-01-22 14:38:00,
2013-01-22 08:40:00,-16.1,-37.7,30.12,SW,225,0.0,0.0,31,0.00,,,0.00,VWS V14.01,2013-01-22 14:40:00,
2013-01-22 08:42:00,-14.6,-36.4,30.12,West,270,4.0,4.0,31,0.00,,,0.00,VWS V14.01,2013-01-22 14:42:00,
2013-01-22 08:44:00,-15.5,-37.2,30.12,SSW,202,0.0,0.9,31,0.00,,,0.00,VWS V14.01,2013-01-22 14:44:00,
2013-01-22 08:46:00,-15.3,-37.1,30.12,WSW,248,6.7,6.7,31,0.00,,,0.00,VWS V14.01,2013-01-22 14:46:00,
2013-01-22 08:47:00,-14.4,-36.3,30.12,SSW,202,3.4,3.4,31,0.00,,,0.00,VWS V14.01,2013-01-22 14:47:00,
2013-01-22 08:48:00,-15.0,-36.8,30.12,WSW,248,0.0,2.0,31,0.00,,,0.00,VWS V14.01,2013-01-22 14:48:00,
2013-01-22 08:50:00,-14.8,-36.6,30.12,SSW,202,4.0,4.0,31,0.00,,,0.00,VWS V14.01,2013-01-22 14:50:00,
2013-01-22 08:52:00,-14.1,-36.0,30.12,WSW,248,3.4,3.4,31,0.00,,,0.00,VWS V14.01,2013-01-22 14:52:00,
2013-01-22 08:54:00,-14.4,-36.3,30.12,WSW,248,3.4,3.4,31,0.00,,,0.00,VWS V14.01,2013-01-22 14:54:00,
2013-01-22 08:56:00,-14.4,-36.3,30.12,WSW,248,3.4,3.4,31,0.00,,,0.00,VWS V14.01,2013-01-22 14:56:00,
2013-01-22 08:57:00,-13.7,-35.6,30.12,WSW,248,4.7,4.7,31,0.00,,,0.00,VWS V14.01,2013-01-22 14:57:00,
2013-01-22 08:58:00,-14.3,-36.1,30.12,SSW,202,3.4,3.4,31,0.00,,,0.00,VWS V14.01,2013-01-22 14:58:00,
2013-01-22 09:00:00,-14.1,-36.0,30.12,SW,225,0.0,1.1,31,0.00,,,0.00,VWS V14.01,2013-01-22 15:00:00,
2013-01-22 09:02:00,-13.4,-35.3,30.12,WSW,248,4.0,4.0,31,0.00,,,0.00,VWS V14.01,2013-01-22 15:02:00,
2013-01-22 09:04:00,-13.9,-35.8,30.12,WSW,248,6.7,6.7,31,0.00,,,0.00,VWS V14.01,2013-01-22 15:04:00,
2013-01-22 09:06:00,-13.9,-35.8,30.12,SW,225,10.1,10.1,31,0.00,,,0.00,VWS V14.01,2013-01-22 15:06:00,
2013-01-22 09:07:00,-13.0,-35.0,30.12,NNW,338,10.7,10.7,31,0.00,,,0.00,VWS V14.01,2013-01-22 15:07:00,
2013-01-22 09:08:00,-13.7,-35.6,30.12,West,270,3.4,3.4,31,0.00,,,0.00,VWS V14.01,2013-01-22 15:08:00,
2013-01-22 09:10:00,-13.5,-35.5,30.12,SSE,158,0.0,1.1,31,0.00,,,0.00,VWS V14.01,2013-01-22 15:10:00,
2013-01-22 09:12:00,-12.6,-34.7,30.12,SW,225,0.0,0.0,31,0.00,,,0.00,VWS V14.01,2013-01-22 15:12:00,
2013-01-22 09:14:00,-13.2,-35.2,30.12,WSW,248,0.0,2.0,31,0.00,,,0.00,VWS V14.01,2013-01-22 15:14:00,
2013-01-22 09:16:00,-13.0,-35.0,30.12,WSW,248,0.0,1.3,31,0.00,,,0.00,VWS V14.01,2013-01-22 15:16:00,
2013-01-22 09:17:00,-12.3,-34.3,30.12,South,180,3.4,3.4,31,0.00,,,0.00,VWS V14.01,2013-01-22 15:17:00,
2013-01-22 09:18:00,-13.0,-35.0,30.12,WNW,292,4.0,4.0,31,0.00,,,0.00,VWS V14.01,2013-01-22 15:18:00,
2013-01-22 09:20:00,-12.8,-34.8,30.12,WSW,248,4.0,4.0,31,0.00,,,0.00,VWS V14.01,2013-01-22 15:20:00,
2013-01-22 09:22:00,-11.4,-33.5,30.12,East,90,2.7,2.7,31,0.00,,,0.00,VWS V14.01,2013-01-22 15:22:00,
2013-01-22 09:24:00,-12.6,-34.7,30.12,South,180,0.0,1.1,31,0.00,,,0.00,VWS V14.01,2013-01-22 15:24:00,
2013-01-22 09:26:00,-12.5,-34.5,30.12,South,180,3.4,3.4,31,0.00,,,0.00,VWS V14.01,2013-01-22 15:26:00,
2013-01-22 09:27:00,-10.7,-32.9,30.12,WNW,292,4.7,4.7,31,0.00,,,0.00,VWS V14.01,2013-01-22 15:27:00,
2013-01-22 09:28:00,-12.1,-34.2,30.12,SSW,202,4.0,4.0,31,0.00,,,0.00,VWS V14.01,2013-01-22 15:28:00,
2013-01-22 09:30:00,-11.9,-34.0,30.12,NNE,22,0.0,1.1,31,0.00,,,0.00,VWS V14.01,2013-01-22 15:30:00,
2013-01-22 09:32:00,-8.9,-31.3,30.12,WSW,248,6.7,6.7,31,0.00,,,0.00,VWS V14.01,2013-01-22 15:32:00,
2013-01-22 09:34:00,-11.2,-33.4,30.12,NW,315,7.4,7.4,31,0.00,,,0.00,VWS V14.01,2013-01-22 15:34:00,
2013-01-22 09:36:00,-11.0,-33.2,30.12,NNE,22,8.1,8.1,31,0.00,,,0.00,VWS V14.01,2013-01-22 15:36:00,
2013-01-22 09:37:00,-7.4,-30.0,30.12,NNW,338,2.7,2.7,31,0.00,,,0.00,VWS V14.01,2013-01-22 15:37:00,
2013-01-22 09:38:00,-10.3,-32.6,30.12,WNW,292,4.7,4.7,31,0.00,,,0.00,VWS V14.01,2013-01-22 15:38:00,
2013-01-22 09:40:00,-9.6,-32.0,30.12,NW,315,6.0,6.0,31,0.00,,,0.00,VWS V14.01,2013-01-22 15:40:00,
2013-01-22 09:42:00,-6.2,-28.9,30.12,SSW,202,6.0,6.0,31,0.00,,,0.00,VWS V14.01,2013-01-22 15:42:00,
2013-01-22 09:44:00,-8.1,-30.7,30.12,NNW,338,4.0,4.0,31,0.00,,,0.00,VWS V14.01,2013-01-22 15:44:00,
2013-01-22 09:46:00,-7.8,-30.4,30.12,WNW,292,6.7,6.7,31,0.00,,,0.00,VWS V14.01,2013-01-22 15:46:00,
2013-01-22 09:47:00,-5.3,-28.1,30.12,West,270,11.4,11.4,31,0.00,,,0.00,VWS V14.01,2013-01-22 15:47:00,
2013-01-22 09:48:00,-7.4,-30.0,30.12,NNW,338,2.7,2.7,31,0.00,,,0.00,VWS V14.01,2013-01-22 15:48:00,
2013-01-22 09:50:00,-6.5,-29.2,30.12,SSW,202,11.4,11.4,31,0.00,,,0.00,VWS V14.01,2013-01-22 15:50:00,
2013-01-22 09:52:00,-5.4,-28.3,30.12,West,270,9.4,9.4,31,0.00,,,0.00,VWS V14.01,2013-01-22 15:52:00,
2013-01-22 09:54:00,-5.8,-28.6,30.12,WSW,248,0.0,2.7,31,0.00,,,0.00,VWS V14.01,2013-01-22 15:54:00,
2013-01-22 09:56:00,-5.4,-28.3,30.12,SSE,158,4.0,4.0,31,0.00,,,0.00,VWS V14.01,2013-01-22 15:56:00,
2013-01-22 09:57:00,-5.6,-28.4,30.15,WSW,248,9.4,9.4,31,0.00,,,0.00,VWS V14.01,2013-01-22 15:57:00,
2013-01-22 09:58:00,-4.7,-27.6,30.12,WSW,248,10.7,10.7,31,0.00,,,0.00,VWS V14.01,2013-01-22 15:58:00,
2013-01-22 10:00:00,-5.1,-28.0,30.12,WSW,248,6.7,6.7,31,0.00,,,0.00,VWS V14.01,2013-01-22 16:00:00,
2013-01-22 10:02:00,-4.9,-27.8,30.15,West,270,2.7,2.7,31,0.00,,,0.00,VWS V14.01,2013-01-22 16:02:00,
2013-01-22 10:04:00,-5.6,-28.4,30.12,ESE,112,8.1,8.1,31,0.00,,,0.00,VWS V14.01,2013-01-22 16:04:00,
2013-01-22 10:06:00,-5.6,-28.4,30.15,NNW,338,3.4,3.4,31,0.00,,,0.00,VWS V14.01,2013-01-22 16:06:00,
2013-01-22 10:07:00,-4.4,-27.3,30.15,NNE,22,8.7,8.7,31,0.00,,,0.00,VWS V14.01,2013-01-22 16:07:00,
2013-01-22 10:08:00,-5.4,-28.3,30.15,WNW,292,7.4,7.4,31,0.00,,,0.00,VWS V14.01,2013-01-22 16:08:00,
2013-01-22 10:10:00,-5.3,-28.1,30.15,NNW,338,0.0,2.5,31,0.00,,,0.00,VWS V14.01,2013-01-22 16:10:00,
2013-01-22 10:12:00,-3.8,-26.8,30.15,SW,225,3.4,3.4,31,0.00,,,0.00,VWS V14.01,2013-01-22 16:12:00,
2013-01-22 10:14:00,-4.7,-27.6,30.15,SW,225,4.0,4.0,31,0.00,,,0.00,VWS V14.01,2013-01-22 16:14:00,
2013-01-22 10:16:00,-4.7,-27.6,30.15,NW,315,7.4,7.4,31,0.00,,,0.00,VWS V14.01,2013-01-22 16:16:00,
2013-01-22 10:17:00,-3.1,-26.2,30.15,WSW,248,7.4,7.4,31,0.00,,,0.00,VWS V14.01,2013-01-22 16:17:00,
2013-01-22 10:18:00,-4.4,-27.3,30.15,SSW,202,0.0,2.9,31,0.00,,,0.00,VWS V14.01,2013-01-22 16:18:00,
2013-01-22 10:20:00,-3.6,-26.7,30.15,NW,315,9.4,9.4,31,0.00,,,0.00,VWS V14.01,2013-01-22 16:20:00,
2013-01-22 10:22:00,-2.6,-25.7,30.15,NW,315,6.0,6.0,31,0.00,,,0.00,VWS V14.01,2013-01-22 16:22:00,
2013-01-22 10:24:00,-3.6,-26.7,30.15,South,180,7.4,7.4,31,0.00,,,0.00,VWS V14.01,2013-01-22 16:24:00,
2013-01-22 10:26:00,-3.1,-26.2,30.15,WSW,248,8.1,8.1,31,0.00,,,0.00,VWS V14.01,2013-01-22 16:26:00,
2013-01-22 10:27:00,-2.6,-25.7,30.15,SSE,158,12.1,12.1,31,0.00,,,0.00,VWS V14.01,2013-01-22 16:27:00,
2013-01-22 10:28:00,-3.1,-26.2,30.15,WNW,292,7.4,7.4,31,0.00,,,0.00,VWS V14.01,2013-01-22 16:28:00,
2013-01-22 10:30:00,-3.1,-26.2,30.15,WSW,248,3.4,3.4,31,0.00,,,0.00,VWS V14.01,2013-01-22 16:30:00,
2013-01-22 10:32:00,-2.7,-25.9,30.15,SSE,158,8.7,8.7,31,0.00,,,0.00,VWS V14.01,2013-01-22 16:32:00,
2013-01-22 10:34:00,-2.7,-25.9,30.15,SSW,202,8.1,8.1,31,0.00,,,0.00,VWS V14.01,2013-01-22 16:34:00,
2013-01-22 10:36:00,-2.6,-25.7,30.15,SSW,202,10.7,10.7,31,0.00,,,0.00,VWS V14.01,2013-01-22 16:36:00,
2013-01-22 10:37:00,-2.9,-26.0,30.15,SSE,158,0.0,2.7,31,0.00,,,0.00,VWS V14.01,2013-01-22 16:37:00,
2013-01-22 10:38:00,-2.6,-25.7,30.15,SSW,202,6.7,6.7,31,0.00,,,0.00,VWS V14.01,2013-01-22 16:38:00,
2013-01-22 10:40:00,-2.6,-25.7,30.15,West,270,12.8,12.8,31,0.00,,,0.00,VWS V14.01,2013-01-22 16:40:00,
2013-01-22 10:42:00,-2.7,-25.9,30.12,SW,225,8.1,8.1,31,0.00,,,0.00,VWS V14.01,2013-01-22 16:42:00,
2013-01-22 10:44:00,-2.6,-25.7,30.15,SW,225,16.8,16.8,31,0.00,,,0.00,VWS V14.01,2013-01-22 16:44:00,
2013-01-22 10:46:00,-2.9,-26.0,30.15,WSW,248,7.4,7.4,31,0.00,,,0.00,VWS V14.01,2013-01-22 16:46:00,
2013-01-22 10:47:00,-2.4,-25.6,30.12,ESE,112,4.7,4.7,31,0.00,,,0.00,VWS V14.01,2013-01-22 16:47:00,
2013-01-22 10:48:00,-2.9,-26.0,30.15,SSW,202,0.0,2.7,31,0.00,,,0.00,VWS V14.01,2013-01-22 16:48:00,
2013-01-22 10:50:00,-2.9,-26.0,30.12,SSW,202,12.1,12.1,31,0.00,,,0.00,VWS V14.01,2013-01-22 16:50:00,
2013-01-22 10:52:00,-1.8,-25.1,30.12,SW,225,8.7,8.7,31,0.00,,,0.00,VWS V14.01,2013-01-22 16:52:00,
2013-01-22 10:54:00,-2.7,-25.9,30.12,SSW,202,16.8,16.8,31,0.00,,,0.00,VWS V14.01,2013-01-22 16:54:00,
2013-01-22 10:56:00,-2.6,-25.7,30.12,NNW,338,3.4,4.3,31,0.00,,,0.00,VWS V14.01,2013-01-22 16:56:00,
2013-01-22 10:57:00,-2.0,-25.2,30.12,SSE,158,10.1,10.1,31,0.00,,,0.00,VWS V14.01,2013-01-22 16:57:00,
2013-01-22 10:58:00,-2.4,-25.6,30.12,SSW,202,2.7,2.7,31,0.00,,,0.00,VWS V14.01,2013-01-22 16:58:00,
2013-01-22 11:00:00,-2.2,-25.4,30.12,SSW,202,10.1,10.1,31,0.00,,,0.00,VWS V14.01,2013-01-22 17:00:00,
2013-01-22 11:02:00,-1.3,-24.6,30.12,SSW,202,12.8,12.8,31,0.00,,,0.00,VWS V14.01,2013-01-22 17:02:00,
2013-01-22 11:04:00,-1.8,-25.1,30.12,WSW,248,2.7,3.8,31,0.00,,,0.00,VWS V14.01,2013-01-22 17:04:00,
2013-01-22 11:06:00,-2.0,-25.2,30.12,South,180,8.1,8.1,31,0.00,,,0.00,VWS V14.01,2013-01-22 17:06:00,
2013-01-22 11:07:00,-1.3,-24.6,30.12,WSW,248,16.1,16.1,31,0.00,,,0.00,VWS V14.01,2013-01-22 17:07:00,
2013-01-22 11:08:00,-1.8,-25.1,30.12,South,180,7.4,7.4,31,0.00,,,0.00,VWS V14.01,2013-01-22 17:08:00,
2013-01-22 11:10:00,-1.8,-25.1,30.12,SW,225,12.1,12.1,31,0.00,,,0.00,VWS V14.01,2013-01-22 17:10:00,
2013-01-22 11:12:00,-1.1,-24.4,30.12,SSW,202,14.8,14.8,31,0.00,,,0.00,VWS V14.01,2013-01-22 17:12:00,
2013-01-22 11:14:00,-1.5,-24.8,30.12,SSW,202,8.7,8.7,31,0.00,,,0.00,VWS V14.01,2013-01-22 17:14:00,
2013-01-22 11:16:00,-1.1,-24.4,30.12,SSW,202,0.0,2.2,31,0.00,,,0.00,VWS V14.01,2013-01-22 17:16:00,
2013-01-22 11:17:00,-1.3,-24.6,30.12,SSW,202,8.1,8.1,31,0.00,,,0.00,VWS V14.01,2013-01-22 17:17:00,
2013-01-22 11:18:00,-1.3,-24.6,30.12,WNW,292,9.4,9.4,31,0.00,,,0.00,VWS V14.01,2013-01-22 17:18:00,
2013-01-22 11:20:00,-1.3,-24.6,30.12,WSW,248,4.7,4.7,31,0.00,,,0.00,VWS V14.01,2013-01-22 17:20:00,
2013-01-22 11:22:00,-1.1,-24.4,30.12,WSW,248,6.0,6.0,31,0.00,,,0.00,VWS V14.01,2013-01-22 17:22:00,
2013-01-22 11:24:00,-1.3,-24.6,30.12,SSW,202,8.7,8.7,31,0.00,,,0.00,VWS V14.01,2013-01-22 17:24:00,
2013-01-22 11:26:00,-1.3,-24.6,30.12,SW,225,3.4,3.4,31,0.00,,,0.00,VWS V14.01,2013-01-22 17:26:00,
2013-01-22 11:27:00,0.0,-23.5,30.12,WSW,248,4.7,4.7,31,0.00,,,0.00,VWS V14.01,2013-01-22 17:27:00,
2013-01-22 11:28:00,-1.7,-24.9,30.12,ENE,68,14.1,14.1,31,0.00,,,0.00,VWS V14.01,2013-01-22 17:28:00,
2013-01-22 11:30:00,-1.5,-24.8,30.12,SW,225,11.4,11.4,31,0.00,,,0.00,VWS V14.01,2013-01-22 17:30:00,
2013-01-22 11:32:00,-0.4,-23.8,30.12,WSW,248,6.7,6.7,31,0.00,,,0.00,VWS V14.01,2013-01-22 17:32:00,
2013-01-22 11:34:00,-0.9,-24.3,30.12,NNW,338,4.0,4.0,31,0.00,,,0.00,VWS V14.01,2013-01-22 17:34:00,
2013-01-22 11:36:00,-0.4,-23.8,30.12,SW,225,3.4,3.4,31,0.00,,,0.00,VWS V14.01,2013-01-22 17:36:00,
2013-01-22 11:37:00,0.3,-23.2,30.12,South,180,10.1,10.1,31,0.00,,,0.00,VWS V14.01,2013-01-22 17:37:00,
2013-01-22 11:38:00,0.0,-23.5,30.12,West,270,10.1,10.1,31,0.00,,,0.00,VWS V14.01,2013-01-22 17:38:00,
2013-01-22 11:40:00,-0.4,-23.8,30.12,South,180,8.1,8.1,31,0.00,,,0.00,VWS V14.01,2013-01-22 17:40:00,
2013-01-22 11:42:00,1.0,-22.5,30.12,West,270,12.1,12.1,31,0.00,,,0.00,VWS V14.01,2013-01-22 17:42:00,
2013-01-22 11:44:00,0.1,-23.3,30.12,West,270,4.0,4.0,31,0.00,,,0.00,VWS V14.01,2013-01-22 17:44:00,
2013-01-22 11:46:00,0.3,-23.2,30.12,South,180,8.7,8.7,31,0.00,,,0.00,VWS V14.01,2013-01-22 17:46:00,
2013-01-22 11:47:00,1.2,-22.4,30.12,SSW,202,8.7,8.7,31,0.00,,,0.00,VWS V14.01,2013-01-22 17:47:00,
2013-01-22 11:48:00,0.3,-23.2,30.12,SSW,202,13.4,13.4,31,0.00,,,0.00,VWS V14.01,2013-01-22 17:48:00,
2013-01-22 11:50:00,0.3,-23.2,30.12,SSW,202,8.7,8.7,31,0.00,,,0.00,VWS V14.01,2013-01-22 17:50:00,
2013-01-22 11:52:00,0.9,-22.7,30.12,SSW,202,7.4,7.4,31,0.00,,,0.00,VWS V14.01,2013-01-22 17:52:00,
2013-01-22 11:54:00,1.2,-22.4,30.12,WSW,248,8.1,8.1,31,0.00,,,0.00,VWS V14.01,2013-01-22 17:54:00,
2013-01-22 11:56:00,1.2,-22.4,30.12,SSW,202,16.8,16.8,31,0.00,,,0.00,VWS V14.01,2013-01-22 17:56:00,
2013-01-22 11:57:00,1.6,-22.0,30.12,West,270,8.7,8.7,31,0.00,,,0.00,VWS V14.01,2013-01-22 17:57:00,
2013-01-22 11:58:00,1.2,-22.4,30.12,West,270,10.1,10.1,31,0.00,,,0.00,VWS V14.01,2013-01-22 17:58:00,
2013-01-22 12:00:00,0.9,-22.7,30.12,SSW,202,6.7,6.7,31,0.00,,,0.00,VWS V14.01,2013-01-22 18:00:00,
2013-01-22 12:02:00,1.9,-21.7,30.12,South,180,9.4,9.4,31,0.00,,,0.00,VWS V14.01,2013-01-22 18:02:00,
2013-01-22 12:04:00,1.0,-22.5,30.12,WSW,248,8.7,8.7,31,0.00,,,0.00,VWS V14.01,2013-01-22 18:04:00,
2013-01-22 12:06:00,0.7,-22.8,30.12,SSW,202,9.4,9.4,31,0.00,,,0.00,VWS V14.01,2013-01-22 18:06:00,
2013-01-22 12:07:00,2.7,-21.1,30.12,South,180,8.1,8.1,31,0.00,,,0.00,VWS V14.01,2013-01-22 18:07:00,
2013-01-22 12:08:00,1.6,-22.0,30.12,West,270,9.4,9.4,31,0.00,,,0.00,VWS V14.01,2013-01-22 18:08:00,
2013-01-22 12:10:00,1.9,-21.7,30.12,WSW,248,4.7,4.7,31,0.00,,,0.00,VWS V14.01,2013-01-22 18:10:00,
2013-01-22 12:12:00,3.9,-20.0,30.12,South,180,8.1,8.1,31,0.00,,,0.00,VWS V14.01,2013-01-22 18:12:00,
2013-01-22 12:14:00,2.5,-21.2,30.12,SW,225,9.4,9.4,31,0.00,,,0.00,VWS V14.01,2013-01-22 18:14:00,
2013-01-22 12:16:00,2.3,-21.4,30.12,South,180,8.1,8.1,31,0.00,,,0.00,VWS V14.01,2013-01-22 18:16:00,
2013-01-22 12:17:00,4.1,-19.8,30.12,South,180,8.1,8.1,31,0.00,,,0.00,VWS V14.01,2013-01-22 18:17:00,
2013-01-22 12:18:00,2.7,-21.1,30.12,South,180,8.1,8.1,31,0.00,,,0.00,VWS V14.01,2013-01-22 18:18:00,
2013-01-22 12:20:00,3.2,-20.6,30.12,South,180,8.1,8.1,31,0.00,,,0.00,VWS V14.01,2013-01-22 18:20:00,
2013-01-22 12:22:00,4.8,-19.2,30.12,South,180,8.1,8.1,31,0.00,,,0.00,VWS V14.01,2013-01-22 18:22:00,
2013-01-22 12:24:00,4.3,-19.6,30.12,South,180,8.1,8.1,31,0.00,,,0.00,VWS V14.01,2013-01-22 18:24:00,
2013-01-22 12:26:00,4.1,-19.8,30.12,South,180,8.1,8.1,31,0.00,,,0.00,VWS V14.01,2013-01-22 18:26:00,
2013-01-22 12:27:00,6.1,-18.1,30.12,South,180,8.1,8.1,31,0.00,,,0.00,VWS V14.01,2013-01-22 18:27:00,
2013-01-22 12:28:00,4.3,-19.6,30.12,South,180,8.1,8.1,31,0.00,,,0.00,VWS V14.01,2013-01-22 18:28:00,
2013-01-22 12:30:00,4.8,-19.2,30.12,South,180,8.1,8.1,31,0.00,,,0.00,VWS V14.01,2013-01-22 18:30:00,
2013-01-22 12:32:00,6.1,-18.1,30.12,South,180,8.1,8.1,31,0.00,,,0.00,VWS V14.01,2013-01-22 18:32:00,
2013-01-22 12:34:00,5.4,-18.7,30.12,South,180,8.1,8.1,31,0.00,,,0.00,VWS V14.01,2013-01-22 18:34:00,
2013-01-22 12:36:00,5.9,-18.2,30.12,South,180,8.1,8.1,31,0.00,,,0.00,VWS V14.01,2013-01-22 18:36:00,
2013-01-22 12:37:00,6.8,-17.4,30.12,South,180,8.1,8.1,31,0.00,,,0.00,VWS V14.01,2013-01-22 18:37:00,
2013-01-22 12:38:00,6.1,-18.1,30.12,South,180,8.1,8.1,31,0.00,,,0.00,VWS V14.01,2013-01-22 18:38:00,
2013-01-22 12:40:00,6.1,-18.1,30.12,South,180,8.1,8.1,31,0.00,,,0.00,VWS V14.01,2013-01-22 18:40:00,
2013-01-22 12:42:00,6.8,-17.4,30.12,South,180,8.1,8.1,31,0.00,,,0.00,VWS V14.01,2013-01-22 18:42:00,
2013-01-22 12:44:00,6.4,-17.7,30.12,South,180,8.1,8.1,31,0.00,,,0.00,VWS V14.01,2013-01-22 18:44:00,
2013-01-22 12:46:00,6.8,-17.4,30.12,South,180,8.1,8.1,31,0.00,,,0.00,VWS V14.01,2013-01-22 18:46:00,
2013-01-22 12:47:00,5.5,-18.5,30.12,South,180,8.1,8.1,31,0.00,,,0.00,VWS V14.01,2013-01-22 18:47:00,
2013-01-22 12:48:00,6.8,-17.4,30.12,South,180,8.1,8.1,31,0.00,,,0.00,VWS V14.01,2013-01-22 18:48:00,
2013-01-22 12:50:00,7.0,-17.3,30.12,South,180,8.1,8.1,31,0.00,,,0.00,VWS V14.01,2013-01-22 18:50:00,
2013-01-22 12:52:00,4.6,-19.3,30.12,South,180,8.1,8.1,31,0.00,,,0.00,VWS V14.01,2013-01-22 18:52:00,
2013-01-22 12:54:00,6.4,-17.7,30.12,South,180,8.1,8.1,31,0.00,,,0.00,VWS V14.01,2013-01-22 18:54:00,
2013-01-22 12:56:00,5.7,-18.4,30.12,South,180,8.1,8.1,31,0.00,,,0.00,VWS V14.01,2013-01-22 18:56:00,
2013-01-22 12:57:00,6.1,-18.1,30.12,South,180,8.1,8.1,31,0.00,,,0.00,VWS V14.01,2013-01-22 18:57:00,
2013-01-22 12:58:00,5.5,-18.5,30.12,South,180,8.1,8.1,31,0.00,,,0.00,VWS V14.01,2013-01-22 18:58:00,
2013-01-22 13:00:00,4.3,-19.6,30.12,South,180,8.1,8.1,31,0.00,,,0.00,VWS V14.01,2013-01-22 19:00:00,
2013-01-22 13:02:00,5.5,-18.5,30.12,South,180,8.1,8.1,31,0.00,,,0.00,VWS V14.01,2013-01-22 19:02:00,
2013-01-22 13:04:00,5.4,-18.7,30.12,South,180,8.1,8.1,31,0.00,,,0.00,VWS V14.01,2013-01-22 19:04:00,
2013-01-22 13:06:00,6.1,-18.1,30.12,South,180,8.1,8.1,31,0.00,,,0.00,VWS V14.01,2013-01-22 19:06:00,
2013-01-22 13:07:00,4.6,-19.3,30.12,South,180,8.1,8.1,31,0.00,,,0.00,VWS V14.01,2013-01-22 19:07:00,
2013-01-22 13:08:00,6.1,-18.1,30.12,South,180,8.1,8.1,31,0.00,,,0.00,VWS V14.01,2013-01-22 19:08:00,
2013-01-22 13:10:00,6.1,-18.1,30.12,South,180,8.1,8.1,31,0.00,,,0.00,VWS V14.01,2013-01-22 19:10:00,
2013-01-22 13:12:00,4.3,-19.6,30.12,South,180,8.1,8.1,31,0.00,,,0.00,VWS V14.01,2013-01-22 19:12:00,
2013-01-22 13:14:00,5.2,-18.9,30.12,South,180,8.1,8.1,31,0.00,,,0.00,VWS V14.01,2013-01-22 19:14:00,
2013-01-22 13:16:00,4.6,-19.3,30.12,South,180,8.1,8.1,31,0.00,,,0.00,VWS V14.01,2013-01-22 19:16:00,
2013-01-22 13:17:00,4.8,-19.2,30.12,South,180,8.1,8.1,31,0.00,,,0.00,VWS V14.01,2013-01-22 19:17:00,
2013-01-22 13:18:00,4.6,-19.3,30.12,South,180,8.1,8.1,31,0.00,,,0.00,VWS V14.01,2013-01-22 19:18:00,
2013-01-22 13:20:00,4.5,-19.5,30.12,South,180,8.1,8.1,31,0.00,,,0.00,VWS V14.01,2013-01-22 19:20:00,
2013-01-22 13:22:00,3.7,-20.1,30.12,South,180,8.1,8.1,31,0.00,,,0.00,VWS V14.01,2013-01-22 19:22:00,
2013-01-22 13:24:00,4.5,-19.5,30.12,South,180,8.1,8.1,31,0.00,,,0.00,VWS V14.01,2013-01-22 19:24:00,
2013-01-22 13:26:00,4.5,-19.5,30.12,South,180,8.1,8.1,31,0.00,,,0.00,VWS V14.01,2013-01-22 19:26:00,
2013-01-22 13:27:00,2.8,-20.9,30.09,South,180,8.1,8.1,31,0.00,,,0.00,VWS V14.01,2013-01-22 19:27:00,
2013-01-22 13:28:00,4.8,-19.2,30.12,South,180,8.1,8.1,31,0.00,,,0.00,VWS V14.01,2013-01-22 19:28:00,
2013-01-22 13:30:00,4.5,-19.5,30.12,South,180,8.1,8.1,31,0.00,,,0.00,VWS V14.01,2013-01-22 19:30:00,
2013-01-22 13:32:00,2.7,-21.1,30.09,South,180,8.1,8.1,31,0.00,,,0.00,VWS V14.01,2013-01-22 19:32:00,
2013-01-22 13:34:00,3.7,-20.1,30.12,South,180,8.1,8.1,31,0.00,,,0.00,VWS V14.01,2013-01-22 19:34:00,
2013-01-22 13:36:00,3.2,-20.6,30.09,South,180,8.1,8.1,31,0.00,,,0.00,VWS V14.01,2013-01-22 19:36:00,
2013-01-22 13:37:00,2.7,-21.1,30.09,South,180,8.1,8.1,31,0.00,,,0.00,VWS V14.01,2013-01-22 19:37:00,
2013-01-22 13:38:00,2.8,-20.9,30.09,South,180,8.1,8.1,31,0.00,,,0.00,VWS V14.01,2013-01-22 19:38:00,
2013-01-22 13:40:00,2.8,-20.9,30.09,South,180,8.1,8.1,31,0.00,,,0.00,VWS V14.01,2013-01-22 19:40:00,
2013-01-22 13:42:00,2.8,-20.9,30.09,South,180,8.1,8.1,31,0.00,,,0.00,VWS V14.01,2013-01-22 19:42:00,
2013-01-22 13:44:00,2.3,-21.4,30.09,South,180,8.1,8.1,31,0.00,,,0.00,VWS V14.01,2013-01-22 19:44:00,
2013-01-22 13:46:00,2.5,-21.2,30.09,South,180,8.1,8.1,31,0.00,,,0.00,VWS V14.01,2013-01-22 19:46:00,
2013-01-22 13:47:00,2.7,-21.1,30.09,South,180,8.1,8.1,31,0.00,,,0.00,VWS V14.01,2013-01-22 19:47:00,
2013-01-22 13:48:00,2.7,-21.1,30.09,South,180,8.1,8.1,31,0.00,,,0.00,VWS V14.01,2013-01-22 19:48:00,
2013-01-22 13:50:00,2.7,-21.1,30.09,South,180,8.1,8.1,31,0.00,,,0.00,VWS V14.01,2013-01-22 19:50:00,
2013-01-22 13:52:00,3.2,-20.6,30.09,South,180,8.1,8.1,31,0.00,,,0.00,VWS V14.01,2013-01-22 19:52:00,
2013-01-22 13:54:00,2.8,-20.9,30.09,South,180,8.1,8.1,31,0.00,,,0.00,VWS V14.01,2013-01-22 19:54:00,
2013-01-22 13:56:00,2.8,-20.9,30.09,South,180,8.1,8.1,31,0.00,,,0.00,VWS V14.01,2013-01-22 19:56:00,
2013-01-22 13:57:00,3.7,-20.1,30.09,South,180,8.1,8.1,31,0.00,,,0.00,VWS V14.01,2013-01-22 19:57:00,
2013-01-22 13:58:00,2.7,-21.1,30.09,South,180,8.1,8.1,31,0.00,,,0.00,VWS V14.01,2013-01-22 19:58:00,
2013-01-22 14:00:00,2.8,-20.9,30.09,South,180,8.1,8.1,31,0.00,,,0.00,VWS V14.01,2013-01-22 20:00:00,
2013-01-22 14:02:00,3.7,-20.1,30.09,South,180,8.1,8.1,31,0.00,,,0.00,VWS V14.01,2013-01-22 20:02:00,
2013-01-22 14:04:00,3.2,-20.6,30.09,South,180,8.1,8.1,31,0.00,,,0.00,VWS V14.01,2013-01-22 20:04:00,
2013-01-22 14:06:00,3.2,-20.6,30.09,South,180,8.1,8.1,31,0.00,,,0.00,VWS V14.01,2013-01-22 20:06:00,
2013-01-22 14:07:00,3.4,-20.5,30.09,South,180,8.1,8.1,31,0.00,,,0.00,VWS V14.01,2013-01-22 20:07:00,
2013-01-22 14:08:00,3.7,-20.1,30.09,South,180,8.1,8.1,31,0.00,,,0.00,VWS V14.01,2013-01-22 20:08:00,
2013-01-22 14:10:00,3.7,-20.1,30.09,South,180,8.1,8.1,31,0.00,,,0.00,VWS V14.01,2013-01-22 20:10:00,
2013-01-22 14:12:00,3.2,-20.6,30.06,South,180,8.1,8.1,31,0.00,,,0.00,VWS V14.01,2013-01-22 20:12:00,
2013-01-22 14:14:00,3.7,-20.1,30.09,South,180,8.1,8.1,31,0.00,,,0.00,VWS V14.01,2013-01-22 20:14:00,
2013-01-22 14:16:00,3.2,-20.6,30.09,South,180,8.1,8.1,31,0.00,,,0.00,VWS V14.01,2013-01-22 20:16:00,
2013-01-22 14:17:00,3.7,-20.1,30.06,South,180,8.1,8.1,31,0.00,,,0.00,VWS V14.01,2013-01-22 20:17:00,
2013-01-22 14:18:00,3.4,-20.5,30.09,South,180,8.1,8.1,31,0.00,,,0.00,VWS V14.01,2013-01-22 20:18:00,
2013-01-22 14:20:00,3.4,-20.5,30.06,South,180,8.1,8.1,31,0.00,,,0.00,VWS V14.01,2013-01-22 20:20:00,
2013-01-22 14:22:00,3.2,-20.6,30.06,South,180,8.1,8.1,31,0.00,,,0.00,VWS V14.01,2013-01-22 20:22:00,
2013-01-22 14:24:00,3.4,-20.5,30.06,South,180,8.1,8.1,31,0.00,,,0.00,VWS V14.01,2013-01-22 20:24:00,
2013-01-22 14:26:00,3.4,-20.5,30.06,South,180,8.1,8.1,31,0.00,,,0.00,VWS V14.01,2013-01-22 20:26:00,
2013-01-22 14:27:00,3.7,-20.1,30.06,South,180,8.1,8.1,31,0.00,,,0.00,VWS V14.01,2013-01-22 20:27:00,
2013-01-22 14:28:00,3.7,-20.1,30.06,South,180,8.1,8.1,31,0.00,,,0.00,VWS V14.01,2013-01-22 20:28:00,
2013-01-22 14:30:00,3.4,-20.5,30.06,South,180,8.1,8.1,31,0.00,,,0.00,VWS V14.01,2013-01-22 20:30:00,
2013-01-22 14:32:00,3.9,-20.0,30.06,South,180,8.1,8.1,31,0.00,,,0.00,VWS V14.01,2013-01-22 20:32:00,
2013-01-22 14:34:00,3.4,-20.5,30.06,South,180,8.1,8.1,31,0.00,,,0.00,VWS V14.01,2013-01-22 20:34:00,
2013-01-22 14:36:00,3.4,-20.5,30.06,South,180,8.1,8.1,31,0.00,,,0.00,VWS V14.01,2013-01-22 20:36:00,
2013-01-22 14:37:00,3.4,-20.5,30.06,WSW,248,6.0,6.3,31,0.00,,,0.00,VWS V14.01,2013-01-22 20:37:00,
2013-01-22 14:38:00,3.7,-20.1,30.06,South,180,8.1,8.1,31,0.00,,,0.00,VWS V14.01,2013-01-22 20:38:00,
2013-01-22 14:40:00,3.9,-20.0,30.06,South,180,8.1,8.1,31,0.00,,,0.00,VWS V14.01,2013-01-22 20:40:00,
2013-01-22 14:42:00,2.8,-20.9,30.06,SW,225,18.8,18.8,31,0.00,,,0.00,VWS V14.01,2013-01-22 20:42:00,
2013-01-22 14:44:00,4.1,-19.8,30.06,South,180,8.1,8.1,31,0.00,,,0.00,VWS V14.01,2013-01-22 20:44:00,
2013-01-22 14:46:00,3.7,-20.1,30.06,West,270,4.0,4.0,31,0.00,,,0.00,VWS V14.01,2013-01-22 20:46:00,
2013-01-22 14:47:00,2.8,-20.9,30.06,SSE,158,6.7,6.7,31,0.00,,,0.00,VWS V14.01,2013-01-22 20:47:00,
2013-01-22 14:48:00,3.4,-20.5,30.06,SW,225,8.1,8.1,31,0.00,,,0.00,VWS V14.01,2013-01-22 20:48:00,
2013-01-22 14:50:00,3.2,-20.6,30.06,South,180,6.0,6.3,31,0.00,,,0.00,VWS V14.01,2013-01-22 20:50:00,
2013-01-22 14:52:00,3.0,-20.8,30.06,West,270,4.7,4.7,31,0.00,,,0.00,VWS V14.01,2013-01-22 20:52:00,
2013-01-22 14:54:00,2.8,-20.9,30.06,SSW,202,6.7,6.7,31,0.00,,,0.00,VWS V14.01,2013-01-22 20:54:00,
2013-01-22 14:56:00,2.8,-20.9,30.06,West,270,3.4,3.4,31,0.00,,,0.00,VWS V14.01,2013-01-22 20:56:00,
2013-01-22 14:57:00,3.0,-20.8,30.06,SSW,202,18.1,18.1,31,0.00,,,0.00,VWS V14.01,2013-01-22 20:57:00,
2013-01-22 14:58:00,2.8,-20.9,30.06,NNE,22,4.0,4.0,31,0.00,,,0.00,VWS V14.01,2013-01-22 20:58:00,
2013-01-22 15:00:00,3.2,-20.6,30.06,WSW,248,6.0,6.0,31,0.00,,,0.00,VWS V14.01,2013-01-22 21:00:00,
2013-01-22 15:02:00,2.7,-21.1,30.06,NNW,338,4.7,4.7,31,0.00,,,0.00,VWS V14.01,2013-01-22 21:02:00,
2013-01-22 15:04:00,2.8,-20.9,30.06,SSE,158,13.4,13.4,31,0.00,,,0.00,VWS V14.01,2013-01-22 21:04:00,
2013-01-22 15:06:00,2.8,-20.9,30.06,SW,225,4.7,4.7,31,0.00,,,0.00,VWS V14.01,2013-01-22 21:06:00,
2013-01-22 15:07:00,2.8,-20.9,30.06,SW,225,8.7,8.7,31,0.00,,,0.00,VWS V14.01,2013-01-22 21:07:00,
2013-01-22 15:08:00,2.8,-20.9,30.06,WSW,248,9.4,9.4,31,0.00,,,0.00,VWS V14.01,2013-01-22 21:08:00,
2013-01-22 15:10:00,2.8,-20.9,30.06,NNW,338,7.4,7.4,31,0.00,,,0.00,VWS V14.01,2013-01-22 21:10:00,
2013-01-22 15:12:00,3.0,-20.8,30.09,SSW,202,12.8,12.8,31,0.00,,,0.00,VWS V14.01,2013-01-22 21:12:00,
2013-01-22 15:14:00,2.5,-21.2,30.06,WSW,248,8.1,8.1,31,0.00,,,0.00,VWS V14.01,2013-01-22 21:14:00,
2013-01-22 15:16:00,2.8,-20.9,30.06,WSW,248,10.7,10.7,31,0.00,,,0.00,VWS V14.01,2013-01-22 21:16:00,
2013-01-22 15:17:00,2.1,-21.6,30.09,WSW,248,6.0,6.0,31,0.00,,,0.00,VWS V14.01,2013-01-22 21:17:00,
2013-01-22 15:18:00,2.8,-20.9,30.06,SW,225,7.4,7.4,31,0.00,,,0.00,VWS V14.01,2013-01-22 21:18:00,
2013-01-22 15:20:00,3.0,-20.8,30.09,SSW,202,6.7,6.7,31,0.00,,,0.00,VWS V14.01,2013-01-22 21:20:00,
2013-01-22 15:22:00,2.3,-21.4,30.09,South,180,11.4,11.4,31,0.00,,,0.00,VWS V14.01,2013-01-22 21:22:00,
2013-01-22 15:24:00,2.7,-21.1,30.09,South,180,11.4,11.4,31,0.00,,,0.00,VWS V14.01,2013-01-22 21:24:00,
2013-01-22 15:26:00,2.3,-21.4,30.09,WSW,248,6.0,6.0,31,0.00,,,0.00,VWS V14.01,2013-01-22 21:26:00,
2013-01-22 15:27:00,1.6,-22.0,30.06,South,180,18.1,18.1,31,0.00,,,0.00,VWS V14.01,2013-01-22 21:27:00,
2013-01-22 15:28:00,2.1,-21.6,30.09,SW,225,4.7,4.7,31,0.00,,,0.00,VWS V14.01,2013-01-22 21:28:00,
2013-01-22 15:30:00,2.1,-21.6,30.09,SSW,202,4.7,4.7,31,0.00,,,0.00,VWS V14.01,2013-01-22 21:30:00,
2013-01-22 15:31:00,1.0,-22.5,30.06,SSW,202,12.8,12.8,31,0.00,,,0.00,VWS V14.01,2013-01-22 21:31:00,
2013-01-22 15:32:00,2.3,-21.4,30.09,WSW,248,8.7,8.7,31,0.00,,,0.00,VWS V14.01,2013-01-22 21:32:00,
2013-01-22 15:34:00,2.1,-21.6,30.09,SSW,202,14.1,14.1,31,0.00,,,0.00,VWS V14.01,2013-01-22 21:34:00,
2013-01-22 15:36:00,0.9,-22.7,30.06,SSW,202,18.1,18.1,31,0.00,,,0.00,VWS V14.01,2013-01-22 21:36:00,
2013-01-22 15:38:00,1.6,-22.0,30.06,SSW,202,17.5,17.5,31,0.00,,,0.00,VWS V14.01,2013-01-22 21:38:00,
2013-01-22 15:40:00,1.2,-22.4,30.06,South,180,8.7,8.7,31,0.00,,,0.00,VWS V14.01,2013-01-22 21:40:00,
2013-01-22 15:41:00,0.7,-22.8,30.09,South,180,3.4,3.4,31,0.00,,,0.00,VWS V14.01,2013-01-22 21:41:00,
2013-01-22 15:42:00,1.0,-22.5,30.06,WSW,248,10.1,10.1,31,0.00,,,0.00,VWS V14.01,2013-01-22 21:42:00,
2013-01-22 15:44:00,1.0,-22.5,30.06,South,180,8.7,8.7,31,0.00,,,0.00,VWS V14.01,2013-01-22 21:44:00,
2013-01-22 15:46:00,0.7,-22.8,30.09,WSW,248,8.7,8.7,31,0.00,,,0.00,VWS V14.01,2013-01-22 21:46:00,
2013-01-22 15:48:00,0.7,-22.8,30.06,South,180,11.4,11.4,31,0.00,,,0.00,VWS V14.01,2013-01-22 21:48:00,
2013-01-22 15:50:00,0.5,-23.0,30.09,WSW,248,6.0,6.0,31,0.00,,,0.00,VWS V14.01,2013-01-22 21:50:00,
2013-01-22 15:51:00,0.5,-23.0,30.09,SSW,202,8.1,8.1,31,0.00,,,0.00,VWS V14.01,2013-01-22 21:51:00,
2013-01-22 15:52:00,0.7,-22.8,30.09,SSW,202,8.7,8.7,31,0.00,,,0.00,VWS V14.01,2013-01-22 21:52:00,
2013-01-22 15:54:00,0.7,-22.8,30.09,WSW,248,8.1,8.1,31,0.00,,,0.00,VWS V14.01,2013-01-22 21:54:00,
2013-01-22 15:56:00,0.3,-23.2,30.06,West,270,4.7,4.7,31,0.00,,,0.00,VWS V14.01,2013-01-22 21:56:00,
2013-01-22 15:58:00,0.7,-22.8,30.09,SSW,202,4.7,4.7,31,0.00,,,0.00,VWS V14.01,2013-01-22 21:58:00,
2013-01-22 16:00:00,0.7,-22.8,30.09,SSW,202,10.7,10.7,31,0.00,,,0.00,VWS V14.01,2013-01-22 22:00:00,
2013-01-22 16:01:00,0.3,-23.2,30.06,SW,225,3.4,4.0,31,0.00,,,0.00,VWS V14.01,2013-01-22 22:01:00,
2013-01-22 16:02:00,0.5,-23.0,30.09,SSW,202,8.1,8.1,31,0.00,,,0.00,VWS V14.01,2013-01-22 22:02:00,
2013-01-22 16:04:00,0.3,-23.2,30.09,SSW,202,12.1,12.1,31,0.00,,,0.00,VWS V14.01,2013-01-22 22:04:00,
2013-01-22 16:06:00,0.0,-23.5,30.06,SSW,202,4.7,5.4,31,0.00,,,0.00,VWS V14.01,2013-01-22 22:06:00,
2013-01-22 16:08:00,0.3,-23.2,30.06,WSW,248,8.1,8.1,31,0.00,,,0.00,VWS V14.01,2013-01-22 22:08:00,
2013-01-22 16:10:00,0.3,-23.2,30.06,SW,225,10.1,10.1,31,0.00,,,0.00,VWS V14.01,2013-01-22 22:10:00,
2013-01-22 16:11:00,0.0,-23.5,30.06,SW,225,4.7,4.7,31,0.00,,,0.00,VWS V14.01,2013-01-22 22:11:00,
2013-01-22 16:12:00,0.3,-23.2,30.06,South,180,3.4,4.0,31,0.00,,,0.00,VWS V14.01,2013-01-22 22:12:00,
2013-01-22 16:14:00,0.3,-23.2,30.06,WSW,248,2.7,2.7,31,0.00,,,0.00,VWS V14.01,2013-01-22 22:14:00,
2013-01-22 16:16:00,0.0,-23.5,30.06,SSW,202,9.4,9.4,31,0.00,,,0.00,VWS V14.01,2013-01-22 22:16:00,
2013-01-22 16:17:00,-0.2,-23.6,30.06,SW,225,4.7,4.7,31,0.00,,,0.00,VWS V14.01,2013-01-22 22:17:00,
2013-01-22 16:18:00,0.0,-23.5,30.06,West,270,6.7,6.7,31,0.00,,,0.00,VWS V14.01,2013-01-22 22:18:00,
2013-01-22 16:20:00,0.0,-23.5,30.06,WSW,248,4.7,4.7,31,0.00,,,0.00,VWS V14.01,2013-01-22 22:20:00,
2013-01-22 16:22:00,-0.6,-24.0,30.06,WNW,292,8.1,8.1,31,0.00,,,0.00,VWS V14.01,2013-01-22 22:22:00,
2013-01-22 16:24:00,0.0,-23.5,30.06,SW,225,4.7,4.7,31,0.00,,,0.00,VWS V14.01,2013-01-22 22:24:00,
2013-01-22 16:26:00,-0.2,-23.6,30.06,SW,225,4.7,4.7,31,0.00,,,0.00,VWS V14.01,2013-01-22 22:26:00,
2013-01-22 16:27:00,-0.6,-24.0,30.06,WNW,292,6.0,6.0,31,0.00,,,0.00,VWS V14.01,2013-01-22 22:27:00,
2013-01-22 16:28:00,-0.4,-23.8,30.06,SW,225,4.7,4.7,31,0.00,,,0.00,VWS V14.01,2013-01-22 22:28:00,
2013-01-22 16:30:00,-0.4,-23.8,30.06,WSW,248,4.7,4.7,31,0.00,,,0.00,VWS V14.01,2013-01-22 22:30:00,
2013-01-22 16:32:00,-0.6,-24.0,30.06,WSW,248,9.4,9.4,31,0.00,,,0.00,VWS V14.01,2013-01-22 22:32:00,
2013-01-22 16:34:00,-0.6,-24.0,30.06,SSW,202,7.4,7.4,31,0.00,,,0.00,VWS V14.01,2013-01-22 22:34:00,
2013-01-22 16:36:00,-0.6,-24.0,30.06,WNW,292,6.0,6.0,31,0.00,,,0.00,VWS V14.01,2013-01-22 22:36:00,
2013-01-22 16:37:00,-0.8,-24.1,30.06,WSW,248,9.4,9.4,31,0.00,,,0.00,VWS V14.01,2013-01-22 22:37:00,
2013-01-22 16:38:00,-0.6,-24.0,30.06,WNW,292,6.0,6.0,31,0.00,,,0.00,VWS V14.01,2013-01-22 22:38:00,
2013-01-22 16:40:00,-0.6,-24.0,30.06,SSW,202,9.4,9.4,31,0.00,,,0.00,VWS V14.01,2013-01-22 22:40:00,
2013-01-22 16:42:00,-0.9,-24.3,30.06,WSW,248,9.4,9.4,31,0.00,,,0.00,VWS V14.01,2013-01-22 22:42:00,
2013-01-22 16:44:00,-0.6,-24.0,30.06,WSW,248,9.4,9.4,31,0.00,,,0.00,VWS V14.01,2013-01-22 22:44:00,
2013-01-22 16:46:00,-0.8,-24.1,30.06,WSW,248,9.4,9.4,31,0.00,,,0.00,VWS V14.01,2013-01-22 22:46:00,
2013-01-22 16:47:00,-1.1,-24.4,30.06,WSW,248,9.4,9.4,31,0.00,,,0.00,VWS V14.01,2013-01-22 22:47:00,
2013-01-22 16:48:00,-0.8,-24.1,30.06,WSW,248,9.4,9.4,31,0.00,,,0.00,VWS V14.01,2013-01-22 22:48:00,
2013-01-22 16:50:00,-0.9,-24.3,30.06,WSW,248,9.4,9.4,31,0.00,,,0.00,VWS V14.01,2013-01-22 22:50:00,
2013-01-22 16:52:00,-1.3,-24.6,30.06,WSW,248,9.4,9.4,31,0.00,,,0.00,VWS V14.01,2013-01-22 22:52:00,
2013-01-22 16:54:00,-0.9,-24.3,30.06,WSW,248,9.4,9.4,31,0.00,,,0.00,VWS V14.01,2013-01-22 22:54:00,
2013-01-22 16:56:00,-1.1,-24.4,30.06,WSW,248,9.4,9.4,31,0.00,,,0.00,VWS V14.01,2013-01-22 22:56:00,
2013-01-22 16:57:00,-1.5,-24.8,30.06,WSW,248,9.4,9.4,31,0.00,,,0.00,VWS V14.01,2013-01-22 22:57:00,
2013-01-22 16:58:00,-1.1,-24.4,30.06,WSW,248,9.4,9.4,31,0.00,,,0.00,VWS V14.01,2013-01-22 22:58:00,
2013-01-22 17:00:00,-1.3,-24.6,30.06,WSW,248,9.4,9.4,31,0.00,,,0.00,VWS V14.01,2013-01-22 23:00:00,
2013-01-22 17:02:00,-1.8,-25.1,30.06,SW,225,0.0,2.5,31,0.00,,,0.00,VWS V14.01,2013-01-22 23:02:00,
2013-01-22 17:04:00,-1.3,-24.6,30.06,WSW,248,9.4,9.4,31,0.00,,,0.00,VWS V14.01,2013-01-22 23:04:00,
2013-01-22 17:06:00,-1.5,-24.8,30.06,WSW,248,9.4,9.4,31,0.00,,,0.00,VWS V14.01,2013-01-22 23:06:00,
2013-01-22 17:07:00,-1.8,-25.1,30.06,SW,225,0.0,0.9,31,0.00,,,0.00,VWS V14.01,2013-01-22 23:07:00,
2013-01-22 17:08:00,-1.5,-24.8,30.06,WSW,248,9.4,9.4,31,0.00,,,0.00,VWS V14.01,2013-01-22 23:08:00,
2013-01-22 17:10:00,-1.7,-24.9,30.06,SSW,202,10.1,10.1,31,0.00,,,0.00,VWS V14.01,2013-01-22 23:10:00,
2013-01-22 17:12:00,-2.0,-25.2,30.03,SW,225,2.7,2.7,31,0.00,,,0.00,VWS V14.01,2013-01-22 23:12:00,
2013-01-22 17:14:00,-1.8,-25.1,30.06,SW,225,0.0,0.0,31,0.00,,,0.00,VWS V14.01,2013-01-22 23:14:00,
2013-01-22 17:16:00,-1.8,-25.1,30.06,SW,225,0.0,0.9,31,0.00,,,0.00,VWS V14.01,2013-01-22 23:16:00,
2013-01-22 17:17:00,-2.0,-25.2,30.03,SSW,202,0.0,0.0,31,0.00,,,0.00,VWS V14.01,2013-01-22 23:17:00,
2013-01-22 17:18:00,-1.8,-25.1,30.06,SW,225,0.0,0.0,31,0.00,,,0.00,VWS V14.01,2013-01-22 23:18:00,
2013-01-22 17:20:00,-1.8,-25.1,30.03,SW,225,0.0,0.0,31,0.00,,,0.00,VWS V14.01,2013-01-22 23:20:00,
2013-01-22 17:22:00,-2.0,-25.2,30.03,SW,225,8.7,8.7,31,0.00,,,0.00,VWS V14.01,2013-01-22 23:22:00,
2013-01-22 17:24:00,-2.0,-25.2,30.03,SW,225,2.7,2.7,31,0.00,,,0.00,VWS V14.01,2013-01-22 23:24:00,
2013-01-22 17:26:00,-2.0,-25.2,30.03,SSW,202,0.0,0.9,31,0.00,,,0.00,VWS V14.01,2013-01-22 23:26:00,
2013-01-22 17:27:00,-2.2,-25.4,30.06,WNW,292,8.1,8.1,31,0.00,,,0.00,VWS V14.01,2013-01-22 23:27:00,
2013-01-22 17:28:00,-2.0,-25.2,30.03,SSW,202,0.0,0.0,31,0.00,,,0.00,VWS V14.01,2013-01-22 23:28:00,
2013-01-22 17:30:00,-2.0,-25.2,30.03,SSW,202,0.0,0.0,31,0.00,,,0.00,VWS V14.01,2013-01-22 23:30:00,
2013-01-22 17:32:00,-2.2,-25.4,30.06,WNW,292,8.1,8.1,31,0.00,,,0.00,VWS V14.01,2013-01-22 23:32:00,
2013-01-22 17:34:00,-2.0,-25.2,30.03,WNW,292,8.1,8.1,31,0.00,,,0.00,VWS V14.01,2013-01-22 23:34:00,
2013-01-22 17:36:00,-2.2,-25.4,30.06,WNW,292,8.1,8.1,31,0.00,,,0.00,VWS V14.01,2013-01-22 23:36:00,
2013-01-22 17:37:00,-2.2,-25.4,30.06,WNW,292,8.1,8.1,31,0.00,,,0.00,VWS V14.01,2013-01-22 23:37:00,
2013-01-22 17:38:00,-2.2,-25.4,30.06,WNW,292,8.1,8.1,31,0.00,,,0.00,VWS V14.01,2013-01-22 23:38:00,
2013-01-22 17:40:00,-2.2,-25.4,30.06,WNW,292,8.1,8.1,31,0.00,,,0.00,VWS V14.01,2013-01-22 23:40:00,
2013-01-22 17:42:00,-2.2,-25.4,30.03,WNW,292,8.1,8.1,31,0.00,,,0.00,VWS V14.01,2013-01-22 23:42:00,
2013-01-22 17:44:00,-2.2,-25.4,30.06,WNW,292,8.1,8.1,31,0.00,,,0.00,VWS V14.01,2013-01-22 23:44:00,
2013-01-22 17:46:00,-2.2,-25.4,30.06,WNW,292,8.1,8.1,31,0.00,,,0.00,VWS V14.01,2013-01-22 23:46:00,
2013-01-22 17:47:00,-2.2,-25.4,30.03,WNW,292,8.1,8.1,31,0.00,,,0.00,VWS V14.01,2013-01-22 23:47:00,
2013-01-22 17:48:00,-2.2,-25.4,30.06,WNW,292,8.1,8.1,31,0.00,,,0.00,VWS V14.01,2013-01-22 23:48:00,
2013-01-22 17:50:00,-2.2,-25.4,30.03,WNW,292,8.1,8.1,31,0.00,,,0.00,VWS V14.01,2013-01-22 23:50:00,
2013-01-22 17:52:00,-2.2,-25.4,30.03,WNW,292,8.1,8.1,31,0.00,,,0.00,VWS V14.01,2013-01-22 23:52:00,
2013-01-22 17:54:00,-2.2,-25.4,30.03,WNW,292,8.1,8.1,31,0.00,,,0.00,VWS V14.01,2013-01-22 23:54:00,
2013-01-22 17:56:00,-2.2,-25.4,30.03,WNW,292,8.1,8.1,31,0.00,,,0.00,VWS V14.01,2013-01-22 23:56:00,
2013-01-22 17:57:00,-2.0,-25.2,30.06,WNW,292,8.1,8.1,31,0.00,,,0.00,VWS V14.01,2013-01-22 23:57:00,
2013-01-22 17:58:00,-2.2,-25.4,30.03,WNW,292,8.1,8.1,31,0.00,,,0.00,VWS V14.01,2013-01-22 23:58:00,
2013-01-22 18:00:00,-2.2,-25.4,30.03,WNW,292,8.1,8.1,31,0.00,,,0.00,VWS V14.01,2013-01-23 00:00:00,
2013-01-22 18:02:00,-2.0,-25.2,30.06,WNW,292,8.1,8.1,31,0.00,,,0.00,VWS V14.01,2013-01-23 00:02:00,
2013-01-22 18:04:00,-2.0,-25.2,30.03,WNW,292,8.1,8.1,31,0.00,,,0.00,VWS V14.01,2013-01-23 00:04:00,
2013-01-22 18:06:00,-2.0,-25.2,30.06,WNW,292,8.1,8.1,31,0.00,,,0.00,VWS V14.01,2013-01-23 00:06:00,
2013-01-22 18:07:00,-1.8,-25.1,30.06,WNW,292,8.1,8.1,31,0.00,,,0.00,VWS V14.01,2013-01-23 00:07:00,
2013-01-22 18:08:00,-2.0,-25.2,30.06,WNW,292,8.1,8.1,31,0.00,,,0.00,VWS V14.01,2013-01-23 00:08:00,
2013-01-22 18:10:00,-2.2,-25.4,30.06,WNW,292,8.1,8.1,31,0.00,,,0.00,VWS V14.01,2013-01-23 00:10:00,
2013-01-22 18:12:00,-1.8,-25.1,30.06,WNW,292,8.1,8.1,31,0.00,,,0.00,VWS V14.01,2013-01-23 00:12:00,
2013-01-22 18:14:00,-2.0,-25.2,30.06,WNW,292,8.1,8.1,31,0.00,,,0.00,VWS V14.01,2013-01-23 00:14:00,
2013-01-22 18:16:00,-2.0,-25.2,30.06,WNW,292,8.1,8.1,31,0.00,,,0.00,VWS V14.01,2013-01-23 00:16:00,
2013-01-22 18:17:00,-1.8,-25.1,30.06,WNW,292,8.1,8.1,31,0.00,,,0.00,VWS V14.01,2013-01-23 00:17:00,
2013-01-22 18:18:00,-1.8,-25.1,30.06,WNW,292,8.1,8.1,31,0.00,,,0.00,VWS V14.01,2013-01-23 00:18:00,
2013-01-22 18:20:00,-1.8,-25.1,30.06,WNW,292,8.1,8.1,31,0.00,,,0.00,VWS V14.01,2013-01-23 00:20:00,
2013-01-22 18:22:00,-1.8,-25.1,30.06,WNW,292,8.1,8.1,31,0.00,,,0.00,VWS V14.01,2013-01-23 00:22:00,
2013-01-22 18:24:00,-1.8,-25.1,30.06,WNW,292,8.1,8.1,31,0.00,,,0.00,VWS V14.01,2013-01-23 00:24:00,
2013-01-22 18:26:00,-1.8,-25.1,30.06,WNW,292,8.1,8.1,31,0.00,,,0.00,VWS V14.01,2013-01-23 00:26:00,
2013-01-22 18:27:00,-1.8,-25.1,30.06,WNW,292,8.1,8.1,31,0.00,,,0.00,VWS V14.01,2013-01-23 00:27:00,
2013-01-22 18:28:00,-1.8,-25.1,30.06,WNW,292,8.1,8.1,31,0.00,,,0.00,VWS V14.01,2013-01-23 00:28:00,
2013-01-22 18:30:00,-1.8,-25.1,30.06,WNW,292,8.1,8.1,31,0.00,,,0.00,VWS V14.01,2013-01-23 00:30:00,
2013-01-22 18:32:00,-1.8,-25.1,30.06,WNW,292,8.1,8.1,31,0.00,,,0.00,VWS V14.01,2013-01-23 00:32:00,
2013-01-22 18:34:00,-1.8,-25.1,30.06,WNW,292,8.1,8.1,31,0.00,,,0.00,VWS V14.01,2013-01-23 00:34:00,
2013-01-22 18:36:00,-1.8,-25.1,30.06,WNW,292,8.1,8.1,31,0.00,,,0.00,VWS V14.01,2013-01-23 00:36:00,
2013-01-22 18:37:00,-1.8,-25.1,30.06,WNW,292,8.1,8.1,31,0.00,,,0.00,VWS V14.01,2013-01-23 00:37:00,
2013-01-22 18:38:00,-1.8,-25.1,30.06,WNW,292,8.1,8.1,31,0.00,,,0.00,VWS V14.01,2013-01-23 00:38:00,
2013-01-22 18:40:00,-1.8,-25.1,30.06,WNW,292,8.1,8.1,31,0.00,,,0.00,VWS V14.01,2013-01-23 00:40:00,
2013-01-22 18:42:00,-1.7,-24.9,30.06,WNW,292,8.1,8.1,31,0.00,,,0.00,VWS V14.01,2013-01-23 00:42:00,
2013-01-22 18:44:00,-1.8,-25.1,30.06,WNW,292,8.1,8.1,31,0.00,,,0.00,VWS V14.01,2013-01-23 00:44:00,
2013-01-22 18:46:00,-1.8,-25.1,30.06,WNW,292,8.1,8.1,31,0.00,,,0.00,VWS V14.01,2013-01-23 00:46:00,
2013-01-22 18:47:00,-1.5,-24.8,30.06,WNW,292,8.1,8.1,31,0.00,,,0.00,VWS V14.01,2013-01-23 00:47:00,
2013-01-22 18:48:00,-1.8,-25.1,30.06,WNW,292,8.1,8.1,31,0.00,,,0.00,VWS V14.01,2013-01-23 00:48:00,
2013-01-22 18:50:00,-1.8,-25.1,30.06,WNW,292,8.1,8.1,31,0.00,,,0.00,VWS V14.01,2013-01-23 00:50:00,
2013-01-22 18:52:00,-1.5,-24.8,30.06,WNW,292,8.1,8.1,31,0.00,,,0.00,VWS V14.01,2013-01-23 00:52:00,
2013-01-22 18:54:00,-1.7,-24.9,30.06,WNW,292,8.1,8.1,31,0.00,,,0.00,VWS V14.01,2013-01-23 00:54:00,
2013-01-22 18:56:00,-1.5,-24.8,30.06,WNW,292,8.1,8.1,31,0.00,,,0.00,VWS V14.01,2013-01-23 00:56:00,
2013-01-22 18:57:00,-1.5,-24.8,30.06,WNW,292,8.1,8.1,31,0.00,,,0.00,VWS V14.01,2013-01-23 00:57:00,
2013-01-22 18:58:00,-1.5,-24.8,30.06,WNW,292,8.1,8.1,31,0.00,,,0.00,VWS V14.01,2013-01-23 00:58:00,
2013-01-22 19:00:00,-1.7,-24.9,30.06,WNW,292,8.1,8.1,31,0.00,,,0.00,VWS V14.01,2013-01-23 01:00:00,
2013-01-22 19:02:00,-1.3,-24.6,30.06,WNW,292,8.1,8.1,31,0.00,,,0.00,VWS V14.01,2013-01-23 01:02:00,
2013-01-22 19:04:00,-1.5,-24.8,30.06,WNW,292,8.1,8.1,31,0.00,,,0.00,VWS V14.01,2013-01-23 01:04:00,
2013-01-22 19:06:00,-1.5,-24.8,30.06,WNW,292,8.1,8.1,31,0.00,,,0.00,VWS V14.01,2013-01-23 01:06:00,
2013-01-22 19:07:00,-1.3,-24.6,30.06,WNW,292,8.1,8.1,31,0.00,,,0.00,VWS V14.01,2013-01-23 01:07:00,
2013-01-22 19:08:00,-1.5,-24.8,30.06,WNW,292,8.1,8.1,31,0.00,,,0.00,VWS V14.01,2013-01-23 01:08:00,
2013-01-22 19:10:00,-1.3,-24.6,30.06,WNW,292,8.1,8.1,31,0.00,,,0.00,VWS V14.01,2013-01-23 01:10:00,
2013-01-22 19:12:00,-1.3,-24.6,30.03,WNW,292,8.1,8.1,31,0.00,,,0.00,VWS V14.01,2013-01-23 01:12:00,
2013-01-22 19:14:00,-1.3,-24.6,30.06,WNW,292,8.1,8.1,31,0.00,,,0.00,VWS V14.01,2013-01-23 01:14:00,
2013-01-22 19:16:00,-1.3,-24.6,30.06,WNW,292,8.1,8.1,31,0.00,,,0.00,VWS V14.01,2013-01-23 01:16:00,
2013-01-22 19:17:00,-1.1,-24.4,30.03,WNW,292,8.1,8.1,31,0.00,,,0.00,VWS V14.01,2013-01-23 01:17:00,
2013-01-22 19:18:00,-1.3,-24.6,30.06,WNW,292,8.1,8.1,31,0.00,,,0.00,VWS V14.01,2013-01-23 01:18:00,
2013-01-22 19:20:00,-1.3,-24.6,30.03,WNW,292,8.1,8.1,31,0.00,,,0.00,VWS V14.01,2013-01-23 01:20:00,
2013-01-22 19:22:00,-0.9,-24.3,30.03,WNW,292,8.1,8.1,31,0.00,,,0.00,VWS V14.01,2013-01-23 01:22:00,
2013-01-22 19:24:00,-1.3,-24.6,30.03,WNW,292,8.1,8.1,31,0.00,,,0.00,VWS V14.01,2013-01-23 01:24:00,
2013-01-22 19:26:00,-1.3,-24.6,30.03,WNW,292,8.1,8.1,31,0.00,,,0.00,VWS V14.01,2013-01-23 01:26:00,
2013-01-22 19:27:00,-0.9,-24.3,30.06,WNW,292,8.1,8.1,31,0.00,,,0.00,VWS V14.01,2013-01-23 01:27:00,
2013-01-22 19:28:00,-1.1,-24.4,30.03,WNW,292,8.1,8.1,31,0.00,,,0.00,VWS V14.01,2013-01-23 01:28:00,
2013-01-22 19:30:00,-1.1,-24.4,30.03,WNW,292,8.1,8.1,31,0.00,,,0.00,VWS V14.01,2013-01-23 01:30:00,
2013-01-22 19:32:00,-0.9,-24.3,30.06,WNW,292,8.1,8.1,31,0.00,,,0.00,VWS V14.01,2013-01-23 01:32:00,
2013-01-22 19:34:00,-0.9,-24.3,30.03,WNW,292,8.1,8.1,31,0.00,,,0.00,VWS V14.01,2013-01-23 01:34:00,
2013-01-22 19:36:00,-0.9,-24.3,30.06,WNW,292,8.1,8.1,31,0.00,,,0.00,VWS V14.01,2013-01-23 01:36:00,
2013-01-22 19:37:00,-0.9,-24.3,30.06,WNW,292,8.1,8.1,31,0.00,,,0.00,VWS V14.01,2013-01-23 01:37:00,
2013-01-22 19:38:00,-0.9,-24.3,30.06,WNW,292,8.1,8.1,31,0.00,,,0.00,VWS V14.01,2013-01-23 01:38:00,
2013-01-22 19:40:00,-0.9,-24.3,30.06,WNW,292,8.1,8.1,31,0.00,,,0.00,VWS V14.01,2013-01-23 01:40:00,
2013-01-22 19:42:00,-0.8,-24.1,30.03,WNW,292,8.1,8.1,31,0.00,,,0.00,VWS V14.01,2013-01-23 01:42:00,
2013-01-22 19:44:00,-0.9,-24.3,30.06,WNW,292,8.1,8.1,31,0.00,,,0.00,VWS V14.01,2013-01-23 01:44:00,
2013-01-22 19:46:00,-0.9,-24.3,30.06,WNW,292,8.1,8.1,31,0.00,,,0.00,VWS V14.01,2013-01-23 01:46:00,
2013-01-22 19:47:00,-0.8,-24.1,30.03,WNW,292,8.1,8.1,31,0.00,,,0.00,VWS V14.01,2013-01-23 01:47:00,
2013-01-22 19:48:00,-0.9,-24.3,30.06,WNW,292,8.1,8.1,31,0.00,,,0.00,VWS V14.01,2013-01-23 01:48:00,
2013-01-22 19:50:00,-0.9,-24.3,30.03,WNW,292,8.1,8.1,31,0.00,,,0.00,VWS V14.01,2013-01-23 01:50:00,
2013-01-22 19:52:00,-0.8,-24.1,30.03,WNW,292,8.1,8.1,31,0.00,,,0.00,VWS V14.01,2013-01-23 01:52:00,
2013-01-22 19:54:00,-0.8,-24.1,30.03,WNW,292,8.1,8.1,31,0.00,,,0.00,VWS V14.01,2013-01-23 01:54:00,
2013-01-22 19:56:00,-0.8,-24.1,30.03,WNW,292,8.1,8.1,31,0.00,,,0.00,VWS V14.01,2013-01-23 01:56:00,
2013-01-22 19:57:00,-0.8,-24.1,30.03,WNW,292,8.1,8.1,31,0.00,,,0.00,VWS V14.01,2013-01-23 01:57:00,
2013-01-22 19:58:00,-0.8,-24.1,30.03,WNW,292,8.1,8.1,31,0.00,,,0.00,VWS V14.01,2013-01-23 01:58:00,
2013-01-22 20:00:00,-0.8,-24.1,30.03,WNW,292,8.1,8.1,31,0.00,,,0.00,VWS V14.01,2013-01-23 02:00:00,
2013-01-22 20:02:00,-0.6,-24.0,30.03,WNW,292,8.1,8.1,31,0.00,,,0.00,VWS V14.01,2013-01-23 02:02:00,
2013-01-22 20:04:00,-0.8,-24.1,30.03,WNW,292,8.1,8.1,31,0.00,,,0.00,VWS V14.01,2013-01-23 02:04:00,
2013-01-22 20:06:00,-0.8,-24.1,30.03,WNW,292,8.1,8.1,31,0.00,,,0.00,VWS V14.01,2013-01-23 02:06:00,
2013-01-22 20:07:00,-0.6,-24.0,30.03,WNW,292,8.1,8.1,31,0.00,,,0.00,VWS V14.01,2013-01-23 02:07:00,
2013-01-22 20:08:00,-0.8,-24.1,30.03,WNW,292,8.1,8.1,31,0.00,,,0.00,VWS V14.01,2013-01-23 02:08:00,
2013-01-22 20:10:00,-0.8,-24.1,30.03,WNW,292,8.1,8.1,31,0.00,,,0.00,VWS V14.01,2013-01-23 02:10:00,
2013-01-22 20:12:00,-0.6,-24.0,30.03,WNW,292,8.1,8.1,31,0.00,,,0.00,VWS V14.01,2013-01-23 02:12:00,
2013-01-22 20:14:00,-0.6,-24.0,30.03,WNW,292,8.1,8.1,31,0.00,,,0.00,VWS V14.01,2013-01-23 02:14:00,
2013-01-22 20:16:00,-0.6,-24.0,30.03,WNW,292,8.1,8.1,31,0.00,,,0.00,VWS V14.01,2013-01-23 02:16:00,
2013-01-22 20:17:00,-0.6,-24.0,30.03,WNW,292,8.1,8.1,31,0.00,,,0.00,VWS V14.01,2013-01-23 02:17:00,
2013-01-22 20:18:00,-0.6,-24.0,30.03,WNW,292,8.1,8.1,31,0.00,,,0.00,VWS V14.01,2013-01-23 02:18:00,
2013-01-22 20:20:00,-0.6,-24.0,30.03,WNW,292,8.1,8.1,31,0.00,,,0.00,VWS V14.01,2013-01-23 02:20:00,
2013-01-22 20:22:00,-0.4,-23.8,30.03,WNW,292,8.1,8.1,31,0.00,,,0.00,VWS V14.01,2013-01-23 02:22:00,
2013-01-22 20:24:00,-0.6,-24.0,30.03,WNW,292,8.1,8.1,31,0.00,,,0.00,VWS V14.01,2013-01-23 02:24:00,
2013-01-22 20:26:00,-0.6,-24.0,30.03,WNW,292,8.1,8.1,31,0.00,,,0.00,VWS V14.01,2013-01-23 02:26:00,
2013-01-22 20:27:00,-0.2,-23.6,30.03,WSW,248,8.7,8.7,31,0.00,,,0.00,VWS V14.01,2013-01-23 02:27:00,
2013-01-22 20:28:00,-0.6,-24.0,30.03,WNW,292,8.1,8.1,31,0.00,,,0.00,VWS V14.01,2013-01-23 02:28:00,
2013-01-22 20:30:00,-0.4,-23.8,30.03,WNW,292,8.1,8.1,31,0.00,,,0.00,VWS V14.01,2013-01-23 02:30:00,
2013-01-22 20:32:00,-0.2,-23.6,30.03,SSW,202,4.0,4.0,31,0.00,,,0.00,VWS V14.01,2013-01-23 02:32:00,
2013-01-22 20:34:00,-0.4,-23.8,30.03,WNW,292,8.1,8.1,31,0.00,,,0.00,VWS V14.01,2013-01-23 02:34:00,
2013-01-22 20:36:00,-0.2,-23.6,30.03,WSW,248,8.7,8.7,31,0.00,,,0.00,VWS V14.01,2013-01-23 02:36:00,
2013-01-22 20:37:00,0.0,-23.5,30.03,SSW,202,4.0,4.0,31,0.00,,,0.00,VWS V14.01,2013-01-23 02:37:00,
2013-01-22 20:38:00,-0.2,-23.6,30.03,WSW,248,8.7,8.7,31,0.00,,,0.00,VWS V14.01,2013-01-23 02:38:00,
2013-01-22 20:40:00,-0.2,-23.6,30.03,WSW,248,8.7,8.7,31,0.00,,,0.00,VWS V14.01,2013-01-23 02:40:00,
2013-01-22 20:42:00,0.0,-23.5,30.03,SSE,158,4.7,4.7,31,0.00,,,0.00,VWS V14.01,2013-01-23 02:42:00,
2013-01-22 20:44:00,0.0,-23.5,30.03,SSW,202,4.0,4.0,31,0.00,,,0.00,VWS V14.01,2013-01-23 02:44:00,
2013-01-22 20:46:00,0.0,-23.5,30.03,SSW,202,4.0,4.0,31,0.00,,,0.00,VWS V14.01,2013-01-23 02:46:00,
2013-01-22 20:47:00,0.0,-23.5,30.03,SSW,202,10.7,10.7,31,0.00,,,0.00,VWS V14.01,2013-01-23 02:47:00,
2013-01-22 20:48:00,0.0,-23.5,30.03,SSW,202,4.0,4.0,31,0.00,,,0.00,VWS V14.01,2013-01-23 02:48:00,
2013-01-22 20:50:00,0.0,-23.5,30.03,SSE,158,4.7,4.7,31,0.00,,,0.00,VWS V14.01,2013-01-23 02:50:00,
2013-01-22 20:52:00,0.0,-23.5,30.03,SSW,202,10.7,10.7,31,0.00,,,0.00,VWS V14.01,2013-01-23 02:52:00,
2013-01-22 20:54:00,0.0,-23.5,30.03,SSE,158,4.7,4.7,31,0.00,,,0.00,VWS V14.01,2013-01-23 02:54:00,
2013-01-22 20:56:00,0.0,-23.5,30.03,SSW,202,10.7,10.7,31,0.00,,,0.00,VWS V14.01,2013-01-23 02:56:00,
2013-01-22 20:57:00,0.1,-23.3,30.03,SSW,202,10.7,10.7,31,0.00,,,0.00,VWS V14.01,2013-01-23 02:57:00,
2013-01-22 20:58:00,0.0,-23.5,30.03,SSW,202,10.7,10.7,31,0.00,,,0.00,VWS V14.01,2013-01-23 02:58:00,
2013-01-22 21:00:00,0.0,-23.5,30.03,SSW,202,10.7,10.7,31,0.00,,,0.00,VWS V14.01,2013-01-23 03:00:00,
2013-01-22 21:02:00,0.3,-23.2,30.03,SSW,202,10.7,10.7,31,0.00,,,0.00,VWS V14.01,2013-01-23 03:02:00,
2013-01-22 21:04:00,0.0,-23.5,30.03,SSW,202,10.7,10.7,31,0.00,,,0.00,VWS V14.01,2013-01-23 03:04:00,
2013-01-22 21:06:00,0.1,-23.3,30.03,SSW,202,10.7,10.7,31,0.00,,,0.00,VWS V14.01,2013-01-23 03:06:00,
2013-01-22 21:07:00,0.3,-23.2,30.03,SSW,202,4.0,4.0,31,0.00,,,0.00,VWS V14.01,2013-01-23 03:07:00,
2013-01-22 21:08:00,0.1,-23.3,30.03,SSW,202,10.7,10.7,31,0.00,,,0.00,VWS V14.01,2013-01-23 03:08:00,
2013-01-22 21:10:00,0.3,-23.2,30.03,SSW,202,10.7,10.7,31,0.00,,,0.00,VWS V14.01,2013-01-23 03:10:00,
2013-01-22 21:12:00,0.3,-23.2,30.03,SSW,202,4.0,4.0,31,0.00,,,0.00,VWS V14.01,2013-01-23 03:12:00,
2013-01-22 21:14:00,0.3,-23.2,30.03,South,180,8.1,8.1,31,0.00,,,0.00,VWS V14.01,2013-01-23 03:14:00,
2013-01-22 21:16:00,0.3,-23.2,30.03,SSW,202,4.0,4.0,31,0.00,,,0.00,VWS V14.01,2013-01-23 03:16:00,
2013-01-22 21:17:00,0.3,-23.2,30.03,SSW,202,4.0,4.0,31,0.00,,,0.00,VWS V14.01,2013-01-23 03:17:00,
2013-01-22 21:18:00,0.3,-23.2,30.03,SSW,202,4.0,4.0,31,0.00,,,0.00,VWS V14.01,2013-01-23 03:18:00,
2013-01-22 21:20:00,0.3,-23.2,30.03,SSW,202,4.0,4.0,31,0.00,,,0.00,VWS V14.01,2013-01-23 03:20:00,
2013-01-22 21:22:00,0.5,-23.0,30.03,SSW,202,4.0,4.0,31,0.00,,,0.00,VWS V14.01,2013-01-23 03:22:00,
2013-01-22 21:24:00,0.3,-23.2,30.03,SSW,202,4.0,4.0,31,0.00,,,0.00,VWS V14.01,2013-01-23 03:24:00,
2013-01-22 21:26:00,0.3,-23.2,30.03,SSW,202,4.0,4.0,31,0.00,,,0.00,VWS V14.01,2013-01-23 03:26:00,
2013-01-22 21:27:00,0.5,-23.0,30.03,SSW,202,4.0,4.0,31,0.00,,,0.00,VWS V14.01,2013-01-23 03:27:00,
2013-01-22 21:28:00,0.3,-23.2,30.03,SSW,202,4.0,4.0,31,0.00,,,0.00,VWS V14.01,2013-01-23 03:28:00,
2013-01-22 21:30:00,0.5,-23.0,30.03,SSW,202,4.0,4.0,31,0.00,,,0.00,VWS V14.01,2013-01-23 03:30:00,
2013-01-22 21:32:00,0.5,-23.0,30.03,SSW,202,4.0,4.0,31,0.00,,,0.00,VWS V14.01,2013-01-23 03:32:00,
2013-01-22 21:34:00,0.5,-23.0,30.03,SSW,202,4.0,4.0,31,0.00,,,0.00,VWS V14.01,2013-01-23 03:34:00,
2013-01-22 21:36:00,0.5,-23.0,30.03,SSW,202,4.0,4.0,31,0.00,,,0.00,VWS V14.01,2013-01-23 03:36:00,
2013-01-22 21:37:00,0.7,-22.8,30.03,SSW,202,4.0,4.0,31,0.00,,,0.00,VWS V14.01,2013-01-23 03:37:00,
2013-01-22 21:38:00,0.5,-23.0,30.03,SSW,202,4.0,4.0,31,0.00,,,0.00,VWS V14.01,2013-01-23 03:38:00,
2013-01-22 21:40:00,0.5,-23.0,30.03,SSW,202,4.0,4.0,31,0.00,,,0.00,VWS V14.01,2013-01-23 03:40:00,
2013-01-22 21:42:00,0.7,-22.8,30.00,SSW,202,4.0,4.0,31,0.00,,,0.00,VWS V14.01,2013-01-23 03:42:00,
2013-01-22 21:44:00,0.5,-23.0,30.03,SSW,202,4.0,4.0,31,0.00,,,0.00,VWS V14.01,2013-01-23 03:44:00,
2013-01-22 21:46:00,0.7,-22.8,30.03,SSW,202,4.0,4.0,31,0.00,,,0.00,VWS V14.01,2013-01-23 03:46:00,
2013-01-22 21:47:00,0.7,-22.8,30.00,SSW,202,7.4,7.4,31,0.00,,,0.00,VWS V14.01,2013-01-23 03:47:00,
2013-01-22 21:48:00,0.7,-22.8,30.03,SSW,202,4.0,4.0,31,0.00,,,0.00,VWS V14.01,2013-01-23 03:48:00,
2013-01-22 21:50:00,0.7,-22.8,30.00,SSW,202,4.0,4.0,31,0.00,,,0.00,VWS V14.01,2013-01-23 03:50:00,
2013-01-22 21:52:00,0.7,-22.8,30.00,SW,225,8.7,8.7,31,0.00,,,0.00,VWS V14.01,2013-01-23 03:52:00,
2013-01-22 21:54:00,0.7,-22.8,30.00,SSW,202,4.0,4.0,31,0.00,,,0.00,VWS V14.01,2013-01-23 03:54:00,
2013-01-22 21:56:00,0.7,-22.8,30.00,SSW,202,4.0,4.0,31,0.00,,,0.00,VWS V14.01,2013-01-23 03:56:00,
2013-01-22 21:57:00,1.0,-22.5,30.03,SW,225,0.0,1.6,31,0.00,,,0.00,VWS V14.01,2013-01-23 03:57:00,
2013-01-22 21:58:00,0.7,-22.8,30.00,SSW,202,8.7,8.7,31,0.00,,,0.00,VWS V14.01,2013-01-23 03:58:00,
2013-01-22 22:00:00,0.7,-22.8,30.00,SSW,202,9.4,9.4,31,0.00,,,0.00,VWS V14.01,2013-01-23 04:00:00,
2013-01-22 22:02:00,0.9,-22.7,30.03,South,180,0.0,4.0,31,0.00,,,0.00,VWS V14.01,2013-01-23 04:02:00,
2013-01-22 22:04:00,0.7,-22.8,30.00,WSW,248,8.1,8.1,31,0.00,,,0.00,VWS V14.01,2013-01-23 04:04:00,
2013-01-22 22:06:00,0.9,-22.7,30.03,SW,225,4.0,4.0,31,0.00,,,0.00,VWS V14.01,2013-01-23 04:06:00,
2013-01-22 22:07:00,1.0,-22.5,30.03,SSW,202,4.7,4.7,31,0.00,,,0.00,VWS V14.01,2013-01-23 04:07:00,
2013-01-22 22:08:00,1.0,-22.5,30.03,SW,225,0.0,1.6,31,0.00,,,0.00,VWS V14.01,2013-01-23 04:08:00,
2013-01-22 22:10:00,1.0,-22.5,30.03,WSW,248,8.7,8.7,31,0.00,,,0.00,VWS V14.01,2013-01-23 04:10:00,
2013-01-22 22:12:00,1.0,-22.5,30.00,WSW,248,4.7,4.7,31,0.00,,,0.00,VWS V14.01,2013-01-23 04:12:00,
2013-01-22 22:14:00,0.9,-22.7,30.03,SW,225,6.0,6.0,31,0.00,,,0.00,VWS V14.01,2013-01-23 04:14:00,
2013-01-22 22:16:00,1.0,-22.5,30.03,SSW,202,6.7,6.7,31,0.00,,,0.00,VWS V14.01,2013-01-23 04:16:00,
2013-01-22 22:17:00,1.2,-22.4,30.00,WSW,248,0.0,2.0,31,0.00,,,0.00,VWS V14.01,2013-01-23 04:17:00,
2013-01-22 22:18:00,1.0,-22.5,30.03,SW,225,2.7,2.7,31,0.00,,,0.00,VWS V14.01,2013-01-23 04:18:00,
2013-01-22 22:20:00,1.0,-22.5,30.00,SW,225,4.0,4.0,31,0.00,,,0.00,VWS V14.01,2013-01-23 04:20:00,
2013-01-22 22:22:00,1.2,-22.4,30.00,South,180,0.0,1.1,31,0.00,,,0.00,VWS V14.01,2013-01-23 04:22:00,
2013-01-22 22:24:00,1.0,-22.5,30.00,WSW,248,4.7,4.7,31,0.00,,,0.00,VWS V14.01,2013-01-23 04:24:00,
2013-01-22 22:26:00,1.2,-22.4,30.00,SW,225,6.0,6.0,31,0.00,,,0.00,VWS V14.01,2013-01-23 04:26:00,
2013-01-22 22:27:00,1.2,-22.4,30.00,SSW,202,6.0,6.0,31,0.00,,,0.00,VWS V14.01,2013-01-23 04:27:00,
2013-01-22 22:28:00,1.2,-22.4,30.00,WSW,248,0.0,2.0,31,0.00,,,0.00,VWS V14.01,2013-01-23 04:28:00,
2013-01-22 22:30:00,1.2,-22.4,30.00,WSW,248,0.0,0.0,31,0.00,,,0.00,VWS V14.01,2013-01-23 04:30:00,
2013-01-22 22:32:00,1.2,-22.4,30.00,SSW,202,6.0,6.0,31,0.00,,,0.00,VWS V14.01,2013-01-23 04:32:00,
2013-01-22 22:34:00,1.2,-22.4,30.00,SSW,202,8.1,8.1,31,0.00,,,0.00,VWS V14.01,2013-01-23 04:34:00,
2013-01-22 22:36:00,1.2,-22.4,30.00,SSE,158,6.7,6.7,31,0.00,,,0.00,VWS V14.01,2013-01-23 04:36:00,
2013-01-22 22:37:00,1.2,-22.4,30.00,SSW,202,4.0,4.0,31,0.00,,,0.00,VWS V14.01,2013-01-23 04:37:00,
2013-01-22 22:38:00,1.2,-22.4,30.00,SSW,202,6.0,6.0,31,0.00,,,0.00,VWS V14.01,2013-01-23 04:38:00,
2013-01-22 22:40:00,1.2,-22.4,30.00,SW,225,4.0,4.0,31,0.00,,,0.00,VWS V14.01,2013-01-23 04:40:00,
2013-01-22 22:42:00,1.4,-22.2,29.97,SSW,202,4.0,4.0,31,0.00,,,0.00,VWS V14.01,2013-01-23 04:42:00,
2013-01-22 22:44:00,1.2,-22.4,30.00,SSW,202,4.7,4.7,31,0.00,,,0.00,VWS V14.01,2013-01-23 04:44:00,
2013-01-22 22:46:00,1.2,-22.4,30.00,SSW,202,8.7,8.7,31,0.00,,,0.00,VWS V14.01,2013-01-23 04:46:00,
2013-01-22 22:47:00,1.4,-22.2,29.97,SW,225,6.7,6.7,31,0.00,,,0.00,VWS V14.01,2013-01-23 04:47:00,
2013-01-22 22:48:00,1.2,-22.4,30.00,SSW,202,4.0,4.0,31,0.00,,,0.00,VWS V14.01,2013-01-23 04:48:00,
2013-01-22 22:50:00,1.2,-22.4,29.97,SW,225,6.0,6.0,31,0.00,,,0.00,VWS V14.01,2013-01-23 04:50:00,
2013-01-22 22:52:00,1.4,-22.2,29.97,SSE,158,2.7,3.1,31,0.00,,,0.00,VWS V14.01,2013-01-23 04:52:00,
2013-01-22 22:54:00,1.4,-22.2,29.97,SSW,202,6.7,6.7,31,0.00,,,0.00,VWS V14.01,2013-01-23 04:54:00,
2013-01-22 22:56:00,1.4,-22.2,29.97,SSW,202,6.0,6.0,31,0.00,,,0.00,VWS V14.01,2013-01-23 04:56:00,
2013-01-22 22:57:00,1.6,-22.0,30.00,South,180,7.4,7.4,31,0.00,,,0.00,VWS V14.01,2013-01-23 04:57:00,
2013-01-22 22:58:00,1.4,-22.2,29.97,SW,225,6.7,6.7,31,0.00,,,0.00,VWS V14.01,2013-01-23 04:58:00,
2013-01-22 23:00:00,1.6,-22.0,30.00,South,180,7.4,7.4,31,0.00,,,0.00,VWS V14.01,2013-01-23 05:00:00,
2013-01-22 23:02:00,1.4,-22.2,29.97,SSW,202,2.7,3.1,31,0.00,,,0.00,VWS V14.01,2013-01-23 05:02:00,
2013-01-22 23:03:00,1.6,-22.0,30.00,SSW,202,4.7,4.7,31,0.00,,,0.00,VWS V14.01,2013-01-23 05:03:00,
2013-01-22 23:04:00,1.4,-22.2,29.97,SSE,158,2.7,2.7,31,0.00,,,0.00,VWS V14.01,2013-01-23 05:04:00,
2013-01-22 23:06:00,1.4,-22.2,30.00,South,180,7.4,7.4,31,0.00,,,0.00,VWS V14.01,2013-01-23 05:06:00,
2013-01-22 23:08:00,1.6,-22.0,30.00,South,180,7.4,7.4,31,0.00,,,0.00,VWS V14.01,2013-01-23 05:08:00,
2013-01-22 23:10:00,1.6,-22.0,30.00,South,180,7.4,7.4,31,0.00,,,0.00,VWS V14.01,2013-01-23 05:10:00,
2013-01-22 23:12:00,1.6,-22.0,30.00,SSW,202,4.7,4.7,31,0.00,,,0.00,VWS V14.01,2013-01-23 05:12:00,
2013-01-22 23:13:00,1.6,-22.0,30.00,South,180,7.4,7.4,31,0.00,,,0.00,VWS V14.01,2013-01-23 05:13:00,
2013-01-22 23:14:00,1.6,-22.0,30.00,South,180,7.4,7.4,31,0.00,,,0.00,VWS V14.01,2013-01-23 05:14:00,
2013-01-22 23:16:00,1.6,-22.0,30.00,South,180,7.4,7.4,31,0.00,,,0.00,VWS V14.01,2013-01-23 05:16:00,
2013-01-22 23:17:00,1.6,-22.0,30.00,South,180,7.4,7.4,31,0.00,,,0.00,VWS V14.01,2013-01-23 05:17:00,
2013-01-22 23:18:00,1.6,-22.0,30.00,South,180,7.4,7.4,31,0.00,,,0.00,VWS V14.01,2013-01-23 05:18:00,
2013-01-22 23:20:00,1.6,-22.0,30.00,South,180,7.4,7.4,31,0.00,,,0.00,VWS V14.01,2013-01-23 05:20:00,
2013-01-22 23:22:00,1.8,-21.9,30.00,SSW,202,4.0,4.0,31,0.00,,,0.00,VWS V14.01,2013-01-23 05:22:00,
2013-01-22 23:24:00,1.6,-22.0,30.00,South,180,7.4,7.4,31,0.00,,,0.00,VWS V14.01,2013-01-23 05:24:00,
2013-01-22 23:26:00,1.6,-22.0,30.00,South,180,7.4,7.4,31,0.00,,,0.00,VWS V14.01,2013-01-23 05:26:00,
2013-01-22 23:27:00,1.9,-21.7,30.00,SSW,202,4.0,4.0,31,0.00,,,0.00,VWS V14.01,2013-01-23 05:27:00,
2013-01-22 23:28:00,1.6,-22.0,30.00,South,180,7.4,7.4,31,0.00,,,0.00,VWS V14.01,2013-01-23 05:28:00,
2013-01-22 23:30:00,1.6,-22.0,30.00,South,180,7.4,7.4,31,0.00,,,0.00,VWS V14.01,2013-01-23 05:30:00,
2013-01-22 23:32:00,1.9,-21.7,30.00,SW,225,4.0,4.0,31,0.00,,,0.00,VWS V14.01,2013-01-23 05:32:00,
2013-01-22 23:34:00,1.8,-21.9,30.00,SSW,202,4.0,4.0,31,0.00,,,0.00,VWS V14.01,2013-01-23 05:34:00,
2013-01-22 23:36:00,1.9,-21.7,30.00,SSW,202,4.0,4.0,31,0.00,,,0.00,VWS V14.01,2013-01-23 05:36:00,
2013-01-22 23:37:00,1.9,-21.7,30.00,SW,225,4.0,4.0,31,0.00,,,0.00,VWS V14.01,2013-01-23 05:37:00,
2013-01-22 23:38:00,1.9,-21.7,30.00,SSW,202,4.0,4.0,31,0.00,,,0.00,VWS V14.01,2013-01-23 05:38:00,
2013-01-22 23:40:00,1.9,-21.7,30.00,SSW,202,4.0,4.0,31,0.00,,,0.00,VWS V14.01,2013-01-23 05:40:00,
2013-01-22 23:42:00,2.1,-21.6,30.00,SW,225,4.0,4.0,31,0.00,,,0.00,VWS V14.01,2013-01-23 05:42:00,
2013-01-22 23:44:00,1.9,-21.7,30.00,SW,225,4.0,4.0,31,0.00,,,0.00,VWS V14.01,2013-01-23 05:44:00,
2013-01-22 23:46:00,1.9,-21.7,30.00,SW,225,4.0,4.0,31,0.00,,,0.00,VWS V14.01,2013-01-23 05:46:00,
2013-01-22 23:47:00,2.3,-21.4,30.00,SW,225,4.0,4.0,31,0.00,,,0.00,VWS V14.01,2013-01-23 05:47:00,
2013-01-22 23:48:00,1.9,-21.7,30.00,SW,225,4.0,4.0,31,0.00,,,0.00,VWS V14.01,2013-01-23 05:48:00,
2013-01-22 23:50:00,1.9,-21.7,30.00,SW,225,4.0,4.0,31,0.00,,,0.00,VWS V14.01,2013-01-23 05:50:00,
2013-01-22 23:52:00,2.3,-21.4,30.00,WSW,248,4.7,4.7,31,0.00,,,0.00,VWS V14.01,2013-01-23 05:52:00,
2013-01-22 23:54:00,2.1,-21.6,30.00,SW,225,4.0,4.0,31,0.00,,,0.00,VWS V14.01,2013-01-23 05:54:00,
2013-01-22 23:56:00,2.1,-21.6,30.00,SW,225,4.0,4.0,31,0.00,,,0.00,VWS V14.01,2013-01-23 05:56:00,
2013-01-22 23:57:00,2.5,-21.2,30.03,WSW,248,4.7,4.7,31,0.00,,,0.00,VWS V14.01,2013-01-23 05:57:00,
2013-01-22 23:58:00,2.3,-21.4,30.00,SW,225,4.0,4.0,31,0.00,,,0.00,VWS V14.01,2013-01-23 05:58:00,